KJ6MC Weather Reports


time (UTC)temp
C
wind
direction
speed
KPH
gust
KPH
rain 1hr
cm
rain 24hr
cm
rain mn
cm
humidity
%
barometer
mb
20260902215238 25 232 4.8 17.7 0.00 0.00 0.00 53 1015.6
20260902215139 25 159 4.8 17.7 0.00 0.00 0.00 53 1015.6
20260902215038 25 245 3.2 16.1 0.00 0.00 0.00 53 1015.6
20260902214938 25 158 3.2 12.9 0.00 0.00 0.00 52 1015.6
20260902214842 25 216 3.2 12.9 0.00 0.00 0.00 52 1015.7
20260902214831 25 203 3.2 12.9 0.00 0.00 0.00 52 1015.7
20260902214739 25 274 4.8 14.5 0.00 0.00 0.00 52 1015.7
20260902214639 26 273 4.8 16.1 0.00 0.00 0.00 51 1015.7
20260902214539 25 228 6.4 16.1 0.00 0.00 0.00 53 1015.7
20260902214446 25 228 6.4 16.1 0.00 0.00 0.00 52 1015.7
20260902214336 25 284 8.0 16.1 0.00 0.00 0.00 53 1015.7
20260902214234 25 273 8.0 16.1 0.00 0.00 0.00 53 1015.8
20260902214134 25 184 8.0 16.1 0.00 0.00 0.00 53 1015.7
20260902214034 25 222 6.4 16.1 0.00 0.00 0.00 53 1015.7
20260902213934 25 256 6.4 16.1 0.00 0.00 0.00 52 1015.8
20260902213834 25 273 6.4 16.1 0.00 0.00 0.00 52 1015.7
20260902213732 25 219 4.8 16.1 0.00 0.00 0.00 52 1015.8
20260902213632 25 233 3.2 16.1 0.00 0.00 0.00 52 1015.7
20260902213554 25 231 4.8 12.9 0.00 0.00 0.00 55 1015.9
20260902213545 25 335 1.6 9.7 0.00 0.00 0.00 53 1015.7
20260902213540 25 225 3.2 16.1 0.00 0.00 0.00 52 1015.8
20260902213528 25 235 1.6 12.9 0.00 0.00 0.00 53 1015.8
20260902213413 25 335 1.6 9.7 0.00 0.00 0.00 53 1015.7
20260902213238 25 77 1.6 9.7 0.00 0.00 0.00 53 1015.9
20260902213233 25 335 1.6 11.3 0.00 0.00 0.00 53 1015.7
20260902213157 25 214 0.0 3.2 0.00 0.00 0.00 53 1015.9
20260902213153 25 321 1.6 11.3 0.00 0.00 0.00 54 1015.7
20260902213037 25 218 4.8 11.3 0.00 0.00 0.00 54 1015.8
20260902213033 25 321 3.2 11.3 0.00 0.00 0.00 54 1015.7
20260902213024 25 232 3.2 9.7 0.00 0.00 0.00 53 1015.8
20260902213020 25 314 3.2 9.7 0.00 0.00 0.00 53 1015.9
20260902213015 25 77 1.6 9.7 0.00 0.00 0.00 53 1015.9
20260902213005 25 321 3.2 11.3 0.00 0.00 0.00 54 1015.7
20260902212949 25 321 3.2 11.3 0.00 0.00 0.00 54 1015.8
20260902212820 25 264 4.8 14.5 0.00 0.00 0.00 54 1016.0
20260902212816 25 235 3.2 11.3 0.00 0.00 0.00 54 1015.8
20260902212703 25 204 3.2 11.3 0.00 0.00 0.00 53 1015.8
20260902212655 25 250 3.2 11.3 0.00 0.00 0.00 54 1015.8
20260902212643 25 226 3.2 11.3 0.00 0.00 0.00 53 1015.8
20260902212626 25 218 4.8 11.3 0.00 0.00 0.00 54 1015.8
20260902212617 25 266 3.2 11.3 0.00 0.00 0.00 53 1015.8
20260902212610 25 232 3.2 9.7 0.00 0.00 0.00 53 1015.8
20260902212547 25 314 3.2 9.7 0.00 0.00 0.00 53 1015.9
20260902212533 25 18 3.2 9.7 0.00 0.00 0.00 53 1015.8
20260902212519 25 136 3.2 9.7 0.00 0.00 0.00 52 1015.8
20260902212509 25 193 3.2 9.7 0.00 0.00 0.00 52 1015.9
20260902212500 25 256 3.2 9.7 0.00 0.00 0.00 53 1015.9
20260902212450 25 235 1.6 9.7 0.00 0.00 0.00 53 1015.9
20260902212439 25 246 1.6 9.7 0.00 0.00 0.00 53 1015.9
20260902212427 25 77 1.6 9.7 0.00 0.00 0.00 53 1015.9
20260902212405 25 293 1.6 9.7 0.00 0.00 0.00 53 1015.9
20260902212356 25 225 1.6 9.7 0.00 0.00 0.00 53 1015.9
20260902212348 25 173 1.6 8.0 0.00 0.00 0.00 53 1015.9
20260902212340 25 268 0.0 8.0 0.00 0.00 0.00 53 1015.9
20260902212331 25 224 0.0 3.2 0.00 0.00 0.00 53 1015.9
20260902211410 25 193 0.0 3.2 0.00 0.00 0.00 53 1015.9
20260902211402 25 193 1.6 11.3 0.00 0.00 0.00 53 1015.9
20260902211354 25 193 1.6 14.5 0.00 0.00 0.00 53 1015.9
20260902211341 25 193 1.6 14.5 0.00 0.00 0.00 53 1015.9
20260902211322 25 217 3.2 14.5 0.00 0.00 0.00 53 1015.9
20260902211316 25 217 3.2 14.5 0.00 0.00 0.00 54 1015.9
20260902211308 25 264 3.2 14.5 0.00 0.00 0.00 54 1015.9
20260902211259 25 264 3.2 14.5 0.00 0.00 0.00 54 1015.9
20260902211251 25 264 3.2 14.5 0.00 0.00 0.00 54 1015.9
20260902211242 25 264 4.8 14.5 0.00 0.00 0.00 54 1016.0
20260902211127 25 295 4.8 14.5 0.00 0.00 0.00 55 1016.0
20260902211118 25 308 4.8 14.5 0.00 0.00 0.00 55 1015.9
20260902211110 25 210 4.8 12.9 0.00 0.00 0.00 55 1015.9
20260902211058 25 145 4.8 12.9 0.00 0.00 0.00 56 1015.9
20260902211046 25 231 4.8 12.9 0.00 0.00 0.00 55 1015.9
20260902205228 24 243 4.8 12.9 0.00 0.00 0.00 54 1016.0
20260902205127 25 246 4.8 12.9 0.00 0.00 0.00 53 1015.9
20260902205029 25 212 4.8 12.9 0.00 0.00 0.00 52 1016.0
20260902204928 25 221 4.8 12.9 0.00 0.00 0.00 53 1016.0
20260902204831 25 250 4.8 12.9 0.00 0.00 0.00 51 1016.0
20260902204821 25 255 4.8 12.9 0.00 0.00 0.00 51 1016.0
20260902204728 25 211 3.2 11.3 0.00 0.00 0.00 51 1016.0
20260902204629 25 255 3.2 11.3 0.00 0.00 0.00 51 1016.0
20260902204528 25 223 3.2 9.7 0.00 0.00 0.00 52 1016.0
20260902204428 25 214 3.2 9.7 0.00 0.00 0.00 52 1016.0
20260902204332 25 236 3.2 9.7 0.00 0.00 0.00 52 1016.0
20260902204322 25 248 3.2 9.7 0.00 0.00 0.00 52 1016.0
20260902204228 25 205 3.2 9.7 0.00 0.00 0.00 52 1016.0
20260902204128 25 225 3.2 9.7 0.00 0.00 0.00 52 1016.0
20260902204112 25 248 3.2 9.7 0.00 0.00 0.00 52 1016.0
20260902203929 25 224 3.2 8.0 0.00 0.00 0.00 53 1016.0
20260902203821 25 235 3.2 9.7 0.00 0.00 0.00 53 1016.0
20260902203728 25 240 3.2 9.7 0.00 0.00 0.00 53 1016.1
20260902203629 25 100 4.8 9.7 0.00 0.00 0.00 52 1016.1
20260902203529 25 101 4.8 9.7 0.00 0.00 0.00 52 1016.1
20260902203424 25 141 4.8 9.7 0.00 0.00 0.00 52 1016.1
20260902203326 25 110 4.8 9.7 0.00 0.00 0.00 52 1016.1
20260902203225 25 113 4.8 9.7 0.00 0.00 0.00 52 1016.1
20260902203125 25 200 4.8 9.7 0.00 0.00 0.00 52 1016.2
20260902203024 25 225 4.8 9.7 0.00 0.00 0.00 52 1016.2
20260902202945 25 108 3.2 9.7 0.00 0.00 0.00 52 1016.2
20260902202940 25 214 3.2 9.7 0.00 0.00 0.00 52 1016.2
20260902202826 25 108 3.2 9.7 0.00 0.00 0.00 52 1016.2
20260902202724 25 210 3.2 9.7 0.00 0.00 0.00 51 1016.2
20260902202625 25 141 3.2 9.7 0.00 0.00 0.00 51 1016.3
20260902202529 26 219 1.6 9.7 0.00 0.00 0.00 51 1016.3
20260902202423 26 70 1.6 9.7 0.00 0.00 0.00 50 1016.3
20260902202325 26 103 1.6 4.8 0.00 0.00 0.00 51 1016.3
20260902202237 26 146 1.6 3.2 0.00 0.00 0.00 51 1016.3
20260902202233 26 201 1.6 3.2 0.00 0.00 0.00 51 1016.3
20260902202024 26 177 1.6 3.2 0.00 0.00 0.00 52 1016.3
20260902201925 26 309 1.6 3.2 0.00 0.00 0.00 52 1016.3
20260902201830 26 44 1.6 3.2 0.00 0.00 0.00 52 1016.3
20260902201725 26 335 1.6 3.2 0.00 0.00 0.00 53 1016.4
20260902201624 26 294 1.6 3.2 0.00 0.00 0.00 52 1016.3
20260902201526 26 294 1.6 3.2 0.00 0.00 0.00 52 1016.3
20260902201510 25 230 4.8 11.3 0.00 0.00 0.00 54 1016.5
20260902201506 26 294 1.6 6.4 0.00 0.00 0.00 52 1016.3
20260902201447 26 294 1.6 8.0 0.00 0.00 0.00 53 1016.4
20260902201442 26 291 1.6 8.0 0.00 0.00 0.00 52 1016.4
20260902201432 26 226 1.6 9.7 0.00 0.00 0.00 53 1016.4
20260902201424 26 153 3.2 9.7 0.00 0.00 0.00 53 1016.4
20260902201415 25 228 3.2 9.7 0.00 0.00 0.00 53 1016.5
20260902201353 25 217 3.2 9.7 0.00 0.00 0.00 53 1016.4
20260902200722 25 113 3.2 11.3 0.00 0.00 0.00 53 1016.5
20260902200656 25 141 4.8 11.3 0.00 0.00 0.00 54 1016.5
20260902200525 25 131 4.8 11.3 0.00 0.00 0.00 53 1016.5
20260902200439 25 242 4.8 11.3 0.00 0.00 0.00 54 1016.5
20260902200431 25 229 4.8 11.3 0.00 0.00 0.00 54 1016.5
20260902200221 25 212 4.8 11.3 0.00 0.00 0.00 55 1016.5
20260902200123 25 212 4.8 11.3 0.00 0.00 0.00 55 1016.5
20260902200054 24 193 3.2 11.3 0.00 0.00 0.00 55 1016.5
20260902195922 24 250 3.2 11.3 0.00 0.00 0.00 54 1016.5
20260902195829 24 130 3.2 11.3 0.00 0.00 0.00 54 1016.6
20260902195719 24 211 3.2 11.3 0.00 0.00 0.00 54 1016.6
20260902195621 24 219 3.2 14.5 0.00 0.00 0.00 54 1016.6
20260902195526 24 208 3.2 14.5 0.00 0.00 0.00 56 1016.6
20260902195420 24 333 3.2 14.5 0.00 0.00 0.00 56 1016.5
20260902195325 24 310 4.8 14.5 0.00 0.00 0.00 55 1016.6
20260902195220 24 356 4.8 14.5 0.00 0.00 0.00 56 1016.5
20260902195121 24 284 4.8 14.5 0.00 0.00 0.00 56 1016.6
20260902195021 24 300 4.8 14.5 0.00 0.00 0.00 55 1016.7
20260902194952 25 235 3.2 14.5 0.00 0.00 0.00 55 1016.7
20260902194841 25 249 3.2 14.5 0.00 0.00 0.00 54 1016.7
20260902194830 25 257 3.2 14.5 0.00 0.00 0.00 54 1016.7
20260902194620 25 233 3.2 11.3 0.00 0.00 0.00 54 1016.7
20260902194525 25 198 3.2 9.7 0.00 0.00 0.00 53 1016.7
20260902194417 25 230 3.2 9.7 0.00 0.00 0.00 53 1016.7
20260902194322 25 215 3.2 9.7 0.00 0.00 0.00 53 1016.7
20260902194316 25 215 3.2 9.7 0.00 0.00 0.00 53 1016.8
20260902194215 25 146 4.8 16.1 0.00 0.00 0.00 55 1016.7
20260902194117 25 235 4.8 16.1 0.00 0.00 0.00 54 1016.7
20260902194016 25 231 4.8 16.1 0.00 0.00 0.00 54 1016.8
20260902193916 25 205 4.8 16.1 0.00 0.00 0.00 54 1016.8
20260902193822 25 243 4.8 16.1 0.00 0.00 0.00 54 1016.8
20260902193817 25 229 4.8 16.1 0.00 0.00 0.00 54 1016.8
20260902193716 25 146 4.8 16.1 0.00 0.00 0.00 54 1016.7
20260902193616 25 216 3.2 16.1 0.00 0.00 0.00 54 1016.8
20260902193520 25 214 3.2 16.1 0.00 0.00 0.00 54 1016.7
20260902193415 25 183 3.2 16.1 0.00 0.00 0.00 53 1016.8
20260902193323 25 183 3.2 16.1 0.00 0.00 0.00 53 1016.8
20260902193317 25 218 3.2 16.1 0.00 0.00 0.00 53 1016.8
20260902193217 25 217 1.6 12.9 0.00 0.00 0.00 54 1016.8
20260902193117 25 234 3.2 12.9 0.00 0.00 0.00 55 1016.8
20260902193016 25 232 1.6 12.9 0.00 0.00 0.00 55 1016.8
20260902192914 25 273 1.6 12.9 0.00 0.00 0.00 55 1016.8
20260902192821 25 256 1.6 12.9 0.00 0.00 0.00 55 1016.8
20260902192815 25 256 1.6 12.9 0.00 0.00 0.00 55 1016.9
20260902192715 25 256 1.6 12.9 0.00 0.00 0.00 55 1017.0
20260902192615 25 256 1.6 12.9 0.00 0.00 0.00 54 1017.0
20260902192546 25 274 3.2 12.9 0.00 0.00 0.00 53 1016.9
20260902192519 25 239 3.2 12.9 0.00 0.00 0.00 54 1017.0
20260902192431 25 225 3.2 12.9 0.00 0.00 0.00 55 1016.9
20260902192315 25 281 3.2 12.9 0.00 0.00 0.00 53 1017.0
20260902192214 25 242 3.2 9.7 0.00 0.00 0.00 54 1017.0
20260902192115 25 278 3.2 8.0 0.00 0.00 0.00 55 1017.0
20260902192014 25 297 3.2 12.9 0.00 0.00 0.00 55 1017.0
20260902191914 25 296 3.2 12.9 0.00 0.00 0.00 55 1017.0
20260902191814 24 296 3.2 12.9 0.00 0.00 0.00 55 1017.0
20260902191714 24 191 3.2 12.9 0.00 0.00 0.00 56 1017.0
20260902191617 24 243 3.2 12.9 0.00 0.00 0.00 56 1017.0
20260902191541 23 146 3.2 12.9 0.00 0.00 0.00 56 1017.1
20260902191518 24 266 3.2 12.9 0.00 0.00 0.00 56 1017.1
20260902191414 23 138 3.2 12.9 0.00 0.00 0.00 56 1017.1
20260902191318 23 146 3.2 12.9 0.00 0.00 0.00 56 1017.1
20260902191310 23 138 3.2 12.9 0.00 0.00 0.00 56 1017.1
20260902191214 23 206 4.8 16.1 0.00 0.00 0.00 56 1017.1
20260902191111 23 179 4.8 16.1 0.00 0.00 0.00 56 1017.2
20260902191010 23 165 3.2 16.1 0.00 0.00 0.00 56 1017.2
20260902190910 23 223 3.2 16.1 0.00 0.00 0.00 57 1017.2
20260902190848 24 231 3.2 16.1 0.00 0.00 0.00 55 1017.2
20260902190810 23 246 3.2 16.1 0.00 0.00 0.00 57 1017.2
20260902190743 23 231 3.2 16.1 0.00 0.00 0.00 56 1017.2
20260902190738 23 246 3.2 16.1 0.00 0.00 0.00 57 1017.2
20260902190625 23 218 3.2 16.1 0.00 0.00 0.00 57 1017.2
20260902190410 23 238 3.2 16.1 0.00 0.00 0.00 57 1017.2
20260902190311 24 218 3.2 16.1 0.00 0.00 0.00 55 1017.2
20260902190301 24 221 3.2 11.3 0.00 0.00 0.00 56 1017.2
20260902190210 24 250 3.2 12.9 0.00 0.00 0.00 55 1017.1
20260902190111 24 229 3.2 11.3 0.00 0.00 0.00 56 1017.2
20260902190041 24 221 3.2 11.3 0.00 0.00 0.00 56 1017.2
20260902190010 24 231 3.2 11.3 0.00 0.00 0.00 57 1017.1
20260902185927 24 117 3.2 11.3 0.00 0.00 0.00 56 1017.2
20260902185810 24 221 3.2 11.3 0.00 0.00 0.00 55 1017.2
20260902185711 24 233 3.2 11.3 0.00 0.00 0.00 56 1017.2
20260902185611 24 235 3.2 11.3 0.00 0.00 0.00 55 1017.2
20260902185511 24 218 3.2 11.3 0.00 0.00 0.00 55 1017.1
20260902185404 24 141 3.2 11.3 0.00 0.00 0.00 56 1017.1
20260902185314 24 143 3.2 11.3 0.00 0.00 0.00 56 1017.1
20260902185307 24 145 3.2 11.3 0.00 0.00 0.00 56 1017.1
20260902185205 24 132 1.6 11.3 0.00 0.00 0.00 55 1017.2
20260902185105 24 137 1.6 11.3 0.00 0.00 0.00 55 1017.2
20260902185004 24 99 1.6 8.0 0.00 0.00 0.00 56 1017.2
20260902184904 24 117 1.6 6.4 0.00 0.00 0.00 57 1017.2
20260902184846 24 11 1.6 6.4 0.00 0.00 0.00 57 1017.1
20260902184804 24 11 1.6 8.0 0.00 0.00 0.00 57 1017.1
20260902184704 23 12 1.6 8.0 0.00 0.00 0.00 58 1017.2
20260902184605 23 117 1.6 8.0 0.00 0.00 0.00 58 1017.2
20260902184505 23 59 3.2 8.0 0.00 0.00 0.00 57 1017.2
20260902184405 23 187 3.2 9.7 0.00 0.00 0.00 57 1017.2
20260902184311 23 236 3.2 11.3 0.00 0.00 0.00 58 1017.2
20260902184308 23 236 3.2 11.3 0.00 0.00 0.00 58 1017.2
20260902184200 23 295 3.2 11.3 0.00 0.00 0.00 58 1017.2
20260902184102 23 255 4.8 12.9 0.00 0.00 0.00 59 1017.2
20260902184031 22 197 4.8 12.9 0.00 0.00 0.00 59 1017.3
20260902184000 23 255 4.8 12.9 0.00 0.00 0.00 60 1017.2
20260902183922 23 231 6.4 12.9 0.00 0.00 0.00 60 1017.2
20260902183912 22 239 6.4 12.9 0.00 0.00 0.00 60 1017.2
20260902183800 22 210 6.4 12.9 0.00 0.00 0.00 60 1017.2
20260902183743 22 156 6.4 12.9 0.00 0.00 0.00 60 1017.3
20260902183739 22 190 6.4 12.9 0.00 0.00 0.00 60 1017.3
20260902183628 22 156 6.4 12.9 0.00 0.00 0.00 60 1017.3
20260902183500 22 198 4.8 12.9 0.00 0.00 0.00 59 1017.3
20260902183422 22 225 4.8 12.9 0.00 0.00 0.00 59 1017.3
20260902183301 22 219 4.8 12.9 0.00 0.00 0.00 59 1017.3
20260902183201 22 212 4.8 12.9 0.00 0.00 0.00 59 1017.3
20260902183101 22 186 4.8 11.3 0.00 0.00 0.00 59 1017.3
20260902183030 22 186 4.8 9.7 0.00 0.00 0.00 60 1017.2
20260902183000 22 139 4.8 11.3 0.00 0.00 0.00 59 1017.3
20260902182922 22 132 4.8 11.3 0.00 0.00 0.00 60 1017.3
20260902182800 22 210 4.8 9.7 0.00 0.00 0.00 60 1017.2
20260902182702 22 200 4.8 9.7 0.00 0.00 0.00 60 1017.3
20260902182601 22 143 4.8 9.7 0.00 0.00 0.00 60 1017.3
20260902182522 22 197 4.8 9.7 0.00 0.00 0.00 59 1017.3
20260902182509 22 225 4.8 9.7 0.00 0.00 0.00 60 1017.3
20260902182312 22 208 4.8 11.3 0.00 0.00 0.00 60 1017.3
20260902182258 22 226 4.8 11.3 0.00 0.00 0.00 60 1017.3
20260902182158 22 185 4.8 11.3 0.00 0.00 0.00 59 1017.3
20260902182059 22 162 4.8 11.3 0.00 0.00 0.00 60 1017.2
20260902181958 22 124 4.8 11.3 0.00 0.00 0.00 60 1017.3
20260902181858 22 191 4.8 11.3 0.00 0.00 0.00 60 1017.3
20260902181811 22 190 4.8 11.3 0.00 0.00 0.00 60 1017.3
20260902181758 22 197 4.8 11.3 0.00 0.00 0.00 59 1017.3
20260902181658 22 148 3.2 11.3 0.00 0.00 0.00 60 1017.2
20260902181558 22 131 4.8 11.3 0.00 0.00 0.00 60 1017.2
20260902181536 22 207 4.8 11.3 0.00 0.00 0.00 60 1017.2
20260902181458 22 101 4.8 11.3 0.00 0.00 0.00 60 1017.2
20260902181421 22 136 4.8 11.3 0.00 0.00 0.00 60 1017.2
20260902181258 22 195 3.2 11.3 0.00 0.00 0.00 60 1017.2
20260902181158 22 201 3.2 11.3 0.00 0.00 0.00 60 1017.2
20260902181100 22 250 3.2 11.3 0.00 0.00 0.00 60 1017.2
20260902180958 22 229 3.2 11.3 0.00 0.00 0.00 60 1017.2
20260902180858 22 207 3.2 11.3 0.00 0.00 0.00 60 1017.2
20260902180811 22 135 3.2 11.3 0.00 0.00 0.00 60 1017.1
20260902180758 22 139 1.6 11.3 0.00 0.00 0.00 60 1017.1
20260902180658 22 160 1.6 11.3 0.00 0.00 0.00 60 1017.2
20260902180559 22 200 1.6 8.0 0.00 0.00 0.00 60 1017.2
20260902180540 22 191 1.6 6.4 0.00 0.00 0.00 61 1017.2
20260902180458 22 138 1.6 8.0 0.00 0.00 0.00 61 1017.2
20260902180424 22 166 1.6 6.4 0.00 0.00 0.00 62 1017.1
20260902180258 22 192 1.6 6.4 0.00 0.00 0.00 61 1017.2
20260902180158 22 191 1.6 6.4 0.00 0.00 0.00 61 1017.2
20260902180059 22 183 1.6 6.4 0.00 0.00 0.00 61 1017.2
20260902175958 22 183 1.6 6.4 0.00 0.00 0.00 62 1017.2
20260902175856 22 208 1.6 6.4 0.00 0.00 0.00 63 1017.2
20260902175812 22 163 1.6 6.4 0.00 0.00 0.00 62 1017.1
20260902175756 22 163 3.2 8.0 0.00 0.00 0.00 62 1017.1
20260902175657 22 163 3.2 11.3 0.00 0.00 0.00 62 1017.1
20260902175556 22 143 3.2 11.3 0.00 0.00 0.00 62 1017.1
20260902175457 22 134 3.2 11.3 0.00 0.00 0.00 62 1017.2
20260902175356 22 243 3.2 11.3 0.00 0.00 0.00 62 1017.2
20260902175311 22 232 3.2 11.3 0.00 0.00 0.00 62 1017.2
20260902175254 22 233 3.2 11.3 0.00 0.00 0.00 62 1017.2
20260902175148 22 260 3.2 11.3 0.00 0.00 0.00 62 1017.1
20260902175049 22 217 3.2 11.3 0.00 0.00 0.00 62 1017.2
20260902174949 22 219 3.2 11.3 0.00 0.00 0.00 61 1017.1
20260902174848 22 239 3.2 11.3 0.00 0.00 0.00 62 1017.2
20260902174811 22 238 3.2 11.3 0.00 0.00 0.00 62 1017.2
20260902174748 22 235 1.6 9.7 0.00 0.00 0.00 62 1017.2
20260902174649 22 228 1.6 9.7 0.00 0.00 0.00 62 1017.2
20260902174549 22 200 1.6 9.7 0.00 0.00 0.00 62 1017.2
20260902174531 21 224 1.6 9.7 0.00 0.00 0.00 62 1017.3
20260902174448 21 223 1.6 9.7 0.00 0.00 0.00 62 1017.2
20260902174432 21 210 1.6 9.7 0.00 0.00 0.00 62 1017.3
20260902174248 21 216 1.6 9.7 0.00 0.00 0.00 63 1017.3
20260902174148 21 222 1.6 9.7 0.00 0.00 0.00 63 1017.2
20260902174048 21 221 1.6 9.7 0.00 0.00 0.00 63 1017.2
20260902174038 21 221 3.2 9.7 0.00 0.00 0.00 63 1017.3
20260902174001 21 221 3.2 9.7 0.00 0.00 0.00 63 1017.3
20260902173922 21 221 3.2 9.7 0.00 0.00 0.00 63 1017.3
20260902173748 21 232 3.2 9.7 0.00 0.00 0.00 62 1017.3
20260902173648 21 232 3.2 9.7 0.00 0.00 0.00 62 1017.3
20260902173548 21 226 3.2 12.9 0.00 0.00 0.00 63 1017.2
20260902173448 21 238 3.2 12.9 0.00 0.00 0.00 62 1017.3
20260902173348 21 245 3.2 12.9 0.00 0.00 0.00 63 1017.2
20260902173311 21 259 3.2 12.9 0.00 0.00 0.00 63 1017.2
20260902173242 21 243 3.2 12.9 0.00 0.00 0.00 63 1017.2
20260902173143 21 260 3.2 12.9 0.00 0.00 0.00 63 1017.2
20260902173042 21 239 3.2 12.9 0.00 0.00 0.00 63 1017.2
20260902172942 21 188 3.2 12.9 0.00 0.00 0.00 63 1017.2
20260902172842 21 219 3.2 12.9 0.00 0.00 0.00 64 1017.1
20260902172812 21 242 3.2 12.9 0.00 0.00 0.00 63 1017.2
20260902172742 21 242 3.2 12.9 0.00 0.00 0.00 63 1017.2
20260902172643 21 225 3.2 12.9 0.00 0.00 0.00 63 1017.2
20260902172543 21 242 1.6 9.7 0.00 0.00 0.00 63 1017.2
20260902172535 21 129 3.2 9.7 0.00 0.00 0.00 64 1017.2
20260902172442 21 231 3.2 9.7 0.00 0.00 0.00 63 1017.2
20260902172421 21 143 3.2 9.7 0.00 0.00 0.00 63 1017.2
20260902172242 21 135 3.2 9.7 0.00 0.00 0.00 64 1017.2
20260902172143 21 243 3.2 9.7 0.00 0.00 0.00 64 1017.2
20260902172042 21 230 3.2 9.7 0.00 0.00 0.00 64 1017.2
20260902171942 21 192 3.2 9.7 0.00 0.00 0.00 64 1017.2
20260902171842 21 136 3.2 9.7 0.00 0.00 0.00 64 1017.2
20260902171811 21 143 1.6 9.7 0.00 0.00 0.00 64 1017.2
20260902171742 21 155 1.6 9.7 0.00 0.00 0.00 65 1017.2
20260902171643 21 186 3.2 8.0 0.00 0.00 0.00 65 1017.2
20260902171554 21 186 3.2 8.0 0.00 0.00 0.00 65 1017.2
20260902171441 21 210 3.2 8.0 0.00 0.00 0.00 64 1017.2
20260902171340 21 214 3.2 8.0 0.00 0.00 0.00 64 1017.2
20260902171305 21 218 1.6 8.0 0.00 0.00 0.00 64 1017.1
20260902171240 21 144 1.6 8.0 0.00 0.00 0.00 65 1017.1
20260902171140 21 179 3.2 9.7 0.00 0.00 0.00 65 1017.2
20260902171040 21 239 3.2 9.7 0.00 0.00 0.00 65 1017.2
20260902170941 21 228 3.2 12.9 0.00 0.00 0.00 66 1017.1
20260902170840 21 221 3.2 12.9 0.00 0.00 0.00 65 1017.2
20260902170805 21 217 3.2 12.9 0.00 0.00 0.00 65 1017.2
20260902170740 21 225 3.2 12.9 0.00 0.00 0.00 65 1017.2
20260902170639 21 228 3.2 12.9 0.00 0.00 0.00 66 1017.1
20260902170538 21 267 3.2 12.9 0.00 0.00 0.00 66 1017.1
20260902170438 21 243 3.2 12.9 0.00 0.00 0.00 65 1017.1
20260902170339 21 242 3.2 12.9 0.00 0.00 0.00 65 1017.1
20260902170303 21 231 3.2 12.9 0.00 0.00 0.00 65 1017.1
20260902170236 21 231 3.2 12.9 0.00 0.00 0.00 64 1017.1
20260902170136 21 246 3.2 12.9 0.00 0.00 0.00 65 1017.1
20260902170036 21 186 1.6 12.9 0.00 0.00 0.00 65 1017.1
20260902165936 21 131 1.6 8.0 0.00 0.00 0.00 66 1017.0
20260902165846 18 103 3.2 6.4 0.00 0.00 0.00 73 1016.9
20260902165836 21 143 1.6 8.0 0.00 0.00 0.00 66 1017.1
20260902165802 21 183 1.6 8.0 0.00 0.00 0.00 67 1017.0
20260902165736 21 132 1.6 8.0 0.00 0.00 0.00 67 1017.0
20260902165657 20 218 3.2 8.0 0.00 0.00 0.00 70 1017.0
20260902165651 19 143 3.2 8.0 0.00 0.00 0.00 72 1016.9
20260902165647 19 107 3.2 8.0 0.00 0.00 0.00 72 1016.9
20260902165640 18 121 3.2 8.0 0.00 0.00 0.00 72 1016.9
20260902165637 18 101 3.2 8.0 0.00 0.00 0.00 73 1016.9
20260902165632 20 127 3.2 8.0 0.00 0.00 0.00 67 1017.0
20260902165617 20 129 3.2 8.0 0.00 0.00 0.00 67 1017.0
20260902165605 20 144 3.2 8.0 0.00 0.00 0.00 67 1017.0
20260902165556 20 146 3.2 8.0 0.00 0.00 0.00 67 1017.0
20260902165540 20 146 3.2 8.0 0.00 0.00 0.00 67 1017.1
20260902165535 20 131 3.2 8.0 0.00 0.00 0.00 68 1017.1
20260902165526 20 214 3.2 8.0 0.00 0.00 0.00 68 1017.1
20260902165518 20 133 3.2 8.0 0.00 0.00 0.00 68 1017.1
20260902165510 20 129 3.2 8.0 0.00 0.00 0.00 68 1017.0
20260902165501 20 106 3.2 8.0 0.00 0.00 0.00 69 1017.1
20260902165345 20 155 3.2 8.0 0.00 0.00 0.00 70 1017.0
20260902165337 20 145 3.2 8.0 0.00 0.00 0.00 71 1017.0
20260902165328 19 161 3.2 8.0 0.00 0.00 0.00 70 1017.0
20260902165308 20 70 3.2 8.0 0.00 0.00 0.00 69 1017.0
20260902165256 20 101 3.2 8.0 0.00 0.00 0.00 69 1017.0
20260902165245 20 107 1.6 8.0 0.00 0.00 0.00 70 1017.0
20260902165240 20 103 1.6 8.0 0.00 0.00 0.00 70 1017.0
20260902165231 20 113 1.6 8.0 0.00 0.00 0.00 70 1016.9
20260902165223 19 88 1.6 8.0 0.00 0.00 0.00 71 1016.9
20260902165214 19 129 1.6 4.8 0.00 0.00 0.00 71 1016.9
20260902165205 19 231 1.6 6.4 0.00 0.00 0.00 71 1016.9
20260902165155 19 181 3.2 8.0 0.00 0.00 0.00 71 1016.9
20260902165149 19 225 3.2 8.0 0.00 0.00 0.00 71 1016.9
20260902164002 19 107 3.2 8.0 0.00 0.00 0.00 72 1016.9
20260902163936 19 96 3.2 8.0 0.00 0.00 0.00 72 1016.9
20260902163927 19 121 3.2 8.0 0.00 0.00 0.00 72 1016.9
20260902163702 18 131 3.2 8.0 0.00 0.00 0.00 72 1016.9
20260902163653 18 150 3.2 8.0 0.00 0.00 0.00 73 1016.9
20260902163645 18 173 3.2 8.0 0.00 0.00 0.00 73 1016.9
20260902163636 18 96 3.2 8.0 0.00 0.00 0.00 73 1016.9
20260902162723 18 107 3.2 6.4 0.00 0.00 0.00 73 1016.9
20260902162635 18 120 1.6 6.4 0.00 0.00 0.00 73 1017.0
20260902162631 18 104 1.6 6.4 0.00 0.00 0.00 73 1017.0
20260902162423 18 103 1.6 6.4 0.00 0.00 0.00 74 1017.0
20260902162323 18 114 3.2 6.4 0.00 0.00 0.00 74 1016.9
20260902162306 18 114 3.2 6.4 0.00 0.00 0.00 74 1017.0
20260902162224 18 134 3.2 6.4 0.00 0.00 0.00 74 1017.0
20260902162120 18 143 3.2 6.4 0.00 0.00 0.00 74 1017.0
20260902162021 18 136 3.2 6.4 0.00 0.00 0.00 74 1017.0
20260902161919 18 103 1.6 6.4 0.00 0.00 0.00 75 1017.0
20260902161820 18 108 1.6 6.4 0.00 0.00 0.00 75 1017.1
20260902161802 18 226 1.6 6.4 0.00 0.00 0.00 75 1017.1
20260902161721 18 153 1.6 6.4 0.00 0.00 0.00 75 1017.1
20260902161619 18 110 1.6 6.4 0.00 0.00 0.00 75 1017.1
20260902161518 18 96 1.6 6.4 0.00 0.00 0.00 75 1017.1
20260902161419 18 96 1.6 6.4 0.00 0.00 0.00 75 1017.0
20260902161318 18 110 1.6 6.4 0.00 0.00 0.00 76 1017.1
20260902161301 18 110 1.6 6.4 0.00 0.00 0.00 76 1017.1
20260902161219 18 82 1.6 6.4 0.00 0.00 0.00 76 1017.1
20260902161203 17 91 1.6 4.8 0.00 0.00 0.00 76 1017.1
20260902161158 17 113 1.6 6.4 0.00 0.00 0.00 76 1017.1
20260902161152 17 129 1.6 4.8 0.00 0.00 0.00 77 1017.2
20260902161147 17 135 0.0 3.2 0.00 0.00 0.00 78 1017.2
20260902161143 18 96 1.6 6.4 0.00 0.00 0.00 76 1017.1
20260902161134 18 113 1.6 6.4 0.00 0.00 0.00 76 1017.1
20260902161125 17 113 1.6 6.4 0.00 0.00 0.00 76 1017.0
20260902161043 17 113 1.6 6.4 0.00 0.00 0.00 76 1017.1
20260902161037 17 88 1.6 6.4 0.00 0.00 0.00 76 1017.1
20260902161028 17 162 1.6 6.4 0.00 0.00 0.00 76 1017.1
20260902161019 17 130 1.6 6.4 0.00 0.00 0.00 76 1017.1
20260902161005 17 146 1.6 4.8 0.00 0.00 0.00 76 1017.1
20260902160956 17 91 1.6 4.8 0.00 0.00 0.00 76 1017.1
20260902160947 17 91 1.6 4.8 0.00 0.00 0.00 76 1017.1
20260902160938 17 91 1.6 4.8 0.00 0.00 0.00 77 1017.2
20260902160929 17 97 1.6 4.8 0.00 0.00 0.00 76 1017.1
20260902160920 17 105 1.6 4.8 0.00 0.00 0.00 77 1017.1
20260902160911 17 150 1.6 4.8 0.00 0.00 0.00 77 1017.1
20260902160902 17 155 1.6 4.8 0.00 0.00 0.00 77 1017.2
20260902160746 17 132 1.6 4.8 0.00 0.00 0.00 77 1017.2
20260902160737 17 127 0.0 4.8 0.00 0.00 0.00 77 1017.2
20260902160728 17 106 0.0 4.8 0.00 0.00 0.00 77 1017.2
20260902160715 17 129 0.0 4.8 0.00 0.00 0.00 78 1017.2
20260902160706 17 113 0.0 3.2 0.00 0.00 0.00 78 1017.2
20260902160655 17 113 0.0 3.2 0.00 0.00 0.00 78 1017.2
20260902160648 17 115 0.0 3.2 0.00 0.00 0.00 78 1017.2
20260902155008 17 135 0.0 3.2 0.00 0.00 0.00 78 1017.2
20260902154908 17 141 0.0 3.2 0.00 0.00 0.00 79 1017.2
20260902154810 17 141 0.0 3.2 0.00 0.00 0.00 79 1017.2
20260902154759 17 141 0.0 3.2 0.00 0.00 0.00 79 1017.2
20260902154706 17 141 0.0 3.2 0.00 0.00 0.00 79 1017.2
20260902154607 17 139 0.0 3.2 0.00 0.00 0.00 79 1017.2
20260902154523 16 131 1.6 4.8 0.00 0.00 0.00 80 1017.2
20260902154507 16 141 0.0 3.2 0.00 0.00 0.00 79 1017.2
20260902154418 16 168 0.0 4.8 0.00 0.00 0.00 79 1017.2
20260902154408 16 131 1.6 4.8 0.00 0.00 0.00 80 1017.2
20260902154203 16 146 1.6 6.4 0.00 0.00 0.00 80 1017.2
20260902154114 16 108 1.6 6.4 0.00 0.00 0.00 80 1017.1
20260902154108 16 147 1.6 6.4 0.00 0.00 0.00 80 1017.1
20260902153900 16 107 1.6 6.4 0.00 0.00 0.00 81 1017.1
20260902153806 16 108 1.6 6.4 0.00 0.00 0.00 81 1017.1
20260902153800 16 107 1.6 6.4 0.00 0.00 0.00 81 1017.1
20260902153700 16 108 3.2 6.4 0.00 0.00 0.00 81 1017.0
20260902153601 16 108 3.2 6.4 0.00 0.00 0.00 81 1017.0
20260902153500 16 112 1.6 6.4 0.00 0.00 0.00 81 1017.0
20260902153403 16 106 1.6 6.4 0.00 0.00 0.00 81 1017.0
20260902153354 15 86 1.6 4.8 0.00 0.00 0.00 84 1017.0
20260902153348 15 115 1.6 6.4 0.00 0.00 0.00 83 1017.0
20260902153344 15 96 1.6 6.4 0.00 0.00 0.00 83 1016.9
20260902153338 16 120 1.6 6.4 0.00 0.00 0.00 81 1017.0
20260902153332 16 102 1.6 6.4 0.00 0.00 0.00 81 1017.0
20260902153324 16 117 1.6 6.4 0.00 0.00 0.00 81 1017.0
20260902153315 16 108 1.6 6.4 0.00 0.00 0.00 81 1017.0
20260902153307 16 115 1.6 6.4 0.00 0.00 0.00 82 1017.0
20260902153258 16 115 1.6 6.4 0.00 0.00 0.00 82 1017.0
20260902153248 16 101 1.6 4.8 0.00 0.00 0.00 82 1017.0
20260902153242 16 107 1.6 4.8 0.00 0.00 0.00 82 1017.0
20260902153234 16 110 1.6 3.2 0.00 0.00 0.00 82 1017.0
20260902153225 16 110 1.6 3.2 0.00 0.00 0.00 83 1017.0
20260902153204 15 110 1.6 3.2 0.00 0.00 0.00 83 1017.0
20260902153156 15 110 1.6 4.8 0.00 0.00 0.00 83 1017.0
20260902153140 15 110 1.6 4.8 0.00 0.00 0.00 83 1017.0
20260902153132 15 119 1.6 4.8 0.00 0.00 0.00 83 1017.0
20260902153123 15 118 3.2 4.8 0.00 0.00 0.00 83 1017.0
20260902153115 15 119 3.2 4.8 0.00 0.00 0.00 83 1017.0
20260902153106 15 118 3.2 6.4 0.00 0.00 0.00 83 1017.0
20260902152949 15 115 1.6 6.4 0.00 0.00 0.00 83 1017.0
20260902152832 15 122 1.6 6.4 0.00 0.00 0.00 83 1016.9
20260902152817 15 127 1.6 6.4 0.00 0.00 0.00 83 1016.9
20260902152809 15 115 1.6 6.4 0.00 0.00 0.00 83 1016.9
20260902152753 15 107 1.6 6.4 0.00 0.00 0.00 83 1016.9
20260902152745 15 125 1.6 6.4 0.00 0.00 0.00 83 1016.8
20260902151058 15 104 1.6 6.4 0.00 0.00 0.00 83 1016.9
20260902151022 15 88 1.6 4.8 0.00 0.00 0.00 84 1017.0
20260902151018 15 110 1.6 6.4 0.00 0.00 0.00 83 1016.9
20260902151010 15 113 1.6 4.8 0.00 0.00 0.00 83 1016.9
20260902150652 15 105 1.6 4.8 0.00 0.00 0.00 83 1016.9
20260902150553 15 104 1.6 4.8 0.00 0.00 0.00 84 1017.0
20260902150452 15 132 1.6 4.8 0.00 0.00 0.00 84 1016.9
20260902150356 15 106 0.0 3.2 0.00 0.00 0.00 84 1016.7
20260902150352 15 132 1.6 4.8 0.00 0.00 0.00 84 1016.9
20260902150257 15 105 1.6 4.8 0.00 0.00 0.00 84 1016.8
20260902150250 15 129 1.6 4.8 0.00 0.00 0.00 84 1016.8
20260902150231 15 120 1.6 4.8 0.00 0.00 0.00 84 1016.8
20260902150049 15 105 0.0 3.2 0.00 0.00 0.00 84 1016.8
20260902150036 13 84 0.0 3.2 0.00 0.00 0.00 87 1016.5
20260902150032 13 110 0.0 3.2 0.00 0.00 0.00 87 1016.4
20260902150026 14 110 3.2 6.4 0.00 0.00 0.00 85 1016.4
20260902150018 15 160 0.0 3.2 0.00 0.00 0.00 84 1016.8
20260902150009 15 110 0.0 3.2 0.00 0.00 0.00 84 1016.8
20260902150002 15 106 0.0 3.2 0.00 0.00 0.00 84 1016.7
20260902145848 15 102 0.0 3.2 0.00 0.00 0.00 84 1016.7
20260902145734 15 113 1.6 3.2 0.00 0.00 0.00 85 1016.8
20260902145729 15 113 1.6 4.8 0.00 0.00 0.00 85 1016.7
20260902145724 15 102 0.0 3.2 0.00 0.00 0.00 84 1016.8
20260902145603 15 113 1.6 4.8 0.00 0.00 0.00 85 1016.7
20260902145414 15 113 1.6 4.8 0.00 0.00 0.00 85 1016.7
20260902145250 15 110 1.6 4.8 0.00 0.00 0.00 85 1016.7
20260902145246 15 113 1.6 4.8 0.00 0.00 0.00 85 1016.7
20260902145238 15 113 1.6 4.8 0.00 0.00 0.00 85 1016.7
20260902145229 15 113 1.6 4.8 0.00 0.00 0.00 85 1016.7
20260902145221 15 100 1.6 4.8 0.00 0.00 0.00 85 1016.7
20260902145212 15 110 1.6 4.8 0.00 0.00 0.00 85 1016.7
20260902145202 15 110 1.6 4.8 0.00 0.00 0.00 85 1016.7
20260902145046 15 109 1.6 4.8 0.00 0.00 0.00 85 1016.7
20260902144617 14 108 0.0 3.2 0.00 0.00 0.00 86 1016.5
20260902144609 14 108 1.6 4.8 0.00 0.00 0.00 85 1016.7
20260902144449 14 102 1.6 3.2 0.00 0.00 0.00 85 1016.7
20260902144336 14 100 1.6 3.2 0.00 0.00 0.00 85 1016.7
20260902144327 14 110 3.2 6.4 0.00 0.00 0.00 86 1016.4
20260902144320 14 108 1.6 3.2 0.00 0.00 0.00 85 1016.7
20260902144314 14 107 1.6 3.2 0.00 0.00 0.00 85 1016.7
20260902144305 14 107 1.6 3.2 0.00 0.00 0.00 85 1016.7
20260902144257 14 107 0.0 3.2 0.00 0.00 0.00 85 1016.6
20260902144249 14 120 0.0 3.2 0.00 0.00 0.00 85 1016.6
20260902144240 14 120 0.0 3.2 0.00 0.00 0.00 85 1016.6
20260902143812 13 84 0.0 1.6 0.00 0.00 0.00 86 1016.5
20260902143759 14 120 0.0 3.2 0.00 0.00 0.00 85 1016.5
20260902143646 14 120 0.0 3.2 0.00 0.00 0.00 85 1016.6
20260902143637 14 120 0.0 3.2 0.00 0.00 0.00 85 1016.5
20260902143625 14 120 0.0 3.2 0.00 0.00 0.00 85 1016.5
20260902143616 14 129 0.0 3.2 0.00 0.00 0.00 85 1016.6
20260902143544 14 129 1.6 3.2 0.00 0.00 0.00 85 1016.5
20260902143536 14 129 1.6 4.8 0.00 0.00 0.00 85 1016.5
20260902143527 14 129 1.6 4.8 0.00 0.00 0.00 85 1016.5
20260902143519 14 129 1.6 6.4 0.00 0.00 0.00 85 1016.5
20260902143510 14 96 1.6 6.4 0.00 0.00 0.00 85 1016.5
20260902143454 14 96 3.2 6.4 0.00 0.00 0.00 86 1016.5
20260902143446 14 103 3.2 6.4 0.00 0.00 0.00 85 1016.5
20260902143437 14 102 3.2 6.4 0.00 0.00 0.00 85 1016.5
20260902143424 14 110 3.2 6.4 0.00 0.00 0.00 85 1016.4
20260902143416 14 109 3.2 6.4 0.00 0.00 0.00 85 1016.4
20260902143300 14 110 3.2 6.4 0.00 0.00 0.00 85 1016.4
20260902143251 14 108 3.2 6.4 0.00 0.00 0.00 85 1016.4
20260902143246 14 110 3.2 6.4 0.00 0.00 0.00 86 1016.4
20260902143154 14 105 3.2 4.8 0.00 0.00 0.00 86 1016.4
20260902143145 14 103 3.2 4.8 0.00 0.00 0.00 86 1016.4
20260902143135 14 112 1.6 4.8 0.00 0.00 0.00 86 1016.4
20260902143129 14 102 1.6 4.8 0.00 0.00 0.00 86 1016.4
20260902143121 14 103 1.6 4.8 0.00 0.00 0.00 86 1016.5
20260902143112 14 131 1.6 4.8 0.00 0.00 0.00 86 1016.5
20260902143050 14 101 1.6 4.8 0.00 0.00 0.00 86 1016.5
20260902143038 14 111 1.6 3.2 0.00 0.00 0.00 86 1016.5
20260902141435 13 115 0.0 3.2 0.00 0.00 0.00 86 1016.5
20260902141426 13 79 0.0 3.2 0.00 0.00 0.00 86 1016.5
20260902141418 13 81 0.0 3.2 0.00 0.00 0.00 86 1016.5
20260902141409 13 64 0.0 3.2 0.00 0.00 0.00 86 1016.6
20260902141401 13 84 0.0 1.6 0.00 0.00 0.00 86 1016.5
20260902141245 13 85 0.0 1.6 0.00 0.00 0.00 86 1016.5
20260902141237 13 85 0.0 3.2 0.00 0.00 0.00 86 1016.5
20260902141228 13 117 0.0 3.2 0.00 0.00 0.00 86 1016.5
20260902141216 13 117 0.0 3.2 0.00 0.00 0.00 86 1016.5
20260902141208 13 117 0.0 3.2 0.00 0.00 0.00 86 1016.5
20260902141158 13 117 0.0 3.2 0.00 0.00 0.00 86 1016.5
20260902141152 13 117 0.0 3.2 0.00 0.00 0.00 87 1016.5
20260902141143 13 119 0.0 3.2 0.00 0.00 0.00 87 1016.5
20260902141135 13 118 0.0 3.2 0.00 0.00 0.00 87 1016.5
20260902141126 13 89 0.0 3.2 0.00 0.00 0.00 87 1016.5
20260902141117 13 84 0.0 3.2 0.00 0.00 0.00 87 1016.5
20260902135724 13 83 0.0 3.2 0.00 0.00 0.00 87 1016.5
20260902135622 13 110 0.0 1.6 0.00 0.00 0.00 87 1016.5
20260902135614 13 110 0.0 1.6 0.00 0.00 0.00 87 1016.4
20260902135422 13 110 0.0 1.6 0.00 0.00 0.00 87 1016.4
20260902135358 13 110 0.0 1.6 0.00 0.00 0.00 87 1016.4
20260902135347 13 110 0.0 1.6 0.00 0.00 0.00 87 1016.4
20260902135220 13 110 0.0 1.6 0.00 0.00 0.00 87 1016.4
20260902135127 13 110 0.0 1.6 0.00 0.00 0.00 87 1016.4
20260902135014 13 110 0.0 1.6 0.00 0.00 0.00 87 1016.4
20260902134914 13 110 0.0 1.6 0.00 0.00 0.00 87 1016.5
20260902134814 13 110 0.0 3.2 0.00 0.00 0.00 87 1016.4
20260902134805 13 110 0.0 3.2 0.00 0.00 0.00 87 1016.4
20260902134714 13 110 0.0 3.2 0.00 0.00 0.00 87 1016.4
20260902134616 13 110 0.0 3.2 0.00 0.00 0.00 87 1016.4
20260902134514 13 110 0.0 3.2 0.00 0.00 0.00 87 1016.4
20260902134414 13 110 0.0 3.2 0.00 0.00 0.00 87 1016.4
20260902134314 13 110 0.0 3.2 0.00 0.00 0.00 87 1016.4
20260902134251 13 110 0.0 3.2 0.00 0.00 0.00 87 1016.4
20260902134214 13 110 0.0 3.2 0.00 0.00 0.00 87 1016.3
20260902134115 13 110 0.0 3.2 0.00 0.00 0.00 87 1016.3
20260902134014 13 110 0.0 3.2 0.00 0.00 0.00 87 1016.2
20260902133914 13 110 0.0 3.2 0.00 0.00 0.00 87 1016.2
20260902133807 13 110 0.0 1.6 0.00 0.00 0.00 87 1016.3
20260902133752 13 110 0.0 1.6 0.00 0.00 0.00 87 1016.3
20260902133709 13 110 0.0 1.6 0.00 0.00 0.00 87 1016.3
20260902133609 13 110 0.0 1.6 0.00 0.00 0.00 87 1016.3
20260902133508 13 110 0.0 1.6 0.00 0.00 0.00 87 1016.3
20260902133409 13 110 0.0 1.6 0.00 0.00 0.00 87 1016.2
20260902133308 13 110 0.0 1.6 0.00 0.00 0.00 87 1016.2
20260902133249 13 110 0.0 1.6 0.00 0.00 0.00 87 1016.2
20260902133208 13 110 0.0 1.6 0.00 0.00 0.00 87 1016.2
20260902133109 13 110 0.0 1.6 0.00 0.00 0.00 87 1016.2
20260902133009 13 110 0.0 1.6 0.00 0.00 0.00 87 1016.2
20260902132908 13 110 0.0 1.6 0.00 0.00 0.00 87 1016.2
20260902132808 13 110 0.0 1.6 0.00 0.00 0.00 87 1016.2
20260902132749 13 110 0.0 1.6 0.00 0.00 0.00 87 1016.2
20260902132709 13 110 0.0 1.6 0.00 0.00 0.00 87 1016.2
20260902132607 13 110 0.0 3.2 0.00 0.00 0.00 87 1016.1
20260902132506 13 110 0.0 3.2 0.00 0.00 0.00 87 1016.1
20260902132406 13 110 0.0 3.2 0.00 0.00 0.00 86 1016.1
20260902132250 13 110 0.0 3.2 0.00 0.00 0.00 86 1016.0
20260902132203 13 110 0.0 3.2 0.00 0.00 0.00 87 1016.0
20260902132058 13 110 0.0 3.2 0.00 0.00 0.00 87 1016.0
20260902131957 13 110 0.0 3.2 0.00 0.00 0.00 86 1016.0
20260902131856 13 110 0.0 3.2 0.00 0.00 0.00 86 1016.0
20260902131802 13 110 0.0 3.2 0.00 0.00 0.00 86 1016.0
20260902131657 13 105 0.0 3.2 0.00 0.00 0.00 86 1016.0
20260902131557 13 105 0.0 3.2 0.00 0.00 0.00 86 1016.0
20260902131456 13 114 0.0 3.2 0.00 0.00 0.00 86 1016.0
20260902131357 13 114 0.0 3.2 0.00 0.00 0.00 86 1015.9
20260902131300 13 114 0.0 3.2 0.00 0.00 0.00 86 1015.9
20260902131250 13 115 0.0 3.2 0.00 0.00 0.00 86 1015.9
20260902131156 13 114 0.0 1.6 0.00 0.00 0.00 86 1016.0
20260902131057 13 110 0.0 1.6 0.00 0.00 0.00 86 1015.9
20260902130956 13 110 0.0 1.6 0.00 0.00 0.00 86 1015.9
20260902130856 13 110 0.0 1.6 0.00 0.00 0.00 86 1015.9
20260902130750 13 79 0.0 1.6 0.00 0.00 0.00 86 1015.9
20260902130656 13 79 0.0 1.6 0.00 0.00 0.00 86 1016.0
20260902130558 13 75 0.0 1.6 0.00 0.00 0.00 86 1016.0
20260902130456 13 75 0.0 1.6 0.00 0.00 0.00 87 1016.0
20260902130356 13 75 0.0 1.6 0.00 0.00 0.00 87 1016.0
20260902130247 13 75 0.0 1.6 0.00 0.00 0.00 87 1016.0
20260902130232 13 94 0.0 1.6 0.00 0.00 0.00 87 1015.9
20260902130154 13 75 0.0 1.6 0.00 0.00 0.00 87 1016.0
20260902130115 13 75 0.0 1.6 0.00 0.00 0.00 87 1016.0
20260902125954 13 75 0.0 1.6 0.00 0.00 0.00 87 1015.9
20260902125906 13 93 0.0 1.6 0.00 0.00 0.00 87 1015.9
20260902125857 13 93 0.0 1.6 0.00 0.00 0.00 87 1015.9
20260902125654 13 93 0.0 1.6 0.00 0.00 0.00 87 1015.9
20260902125555 13 94 0.0 1.6 0.00 0.00 0.00 87 1015.9
20260902125454 13 94 0.0 1.6 0.00 0.00 0.00 87 1015.9
20260902125355 13 94 0.0 3.2 0.00 0.00 0.00 86 1015.9
20260902125254 13 93 1.6 3.2 0.00 0.00 0.00 86 1015.9
20260902125243 13 94 1.6 3.2 0.00 0.00 0.00 86 1015.9
20260902125154 13 93 1.6 3.2 0.00 0.00 0.00 86 1015.8
20260902125055 13 94 1.6 3.2 0.00 0.00 0.00 86 1015.9
20260902124954 13 93 1.6 3.2 0.00 0.00 0.00 86 1015.9
20260902124855 13 93 1.6 3.2 0.00 0.00 0.00 86 1015.9
20260902124743 13 89 1.6 3.2 0.00 0.00 0.00 86 1015.9
20260902124652 13 68 0.0 3.2 0.00 0.00 0.00 87 1015.9
20260902124553 13 68 0.0 3.2 0.00 0.00 0.00 87 1015.9
20260902124451 13 68 0.0 3.2 0.00 0.00 0.00 87 1015.9
20260902124350 14 77 0.0 3.2 0.00 0.00 0.00 87 1015.9
20260902124241 14 57 0.0 3.2 0.00 0.00 0.00 87 1015.9
20260902124150 14 116 0.0 1.6 0.00 0.00 0.00 87 1015.9
20260902124051 14 116 0.0 1.6 0.00 0.00 0.00 87 1015.9
20260902123950 14 115 0.0 1.6 0.00 0.00 0.00 87 1015.9
20260902123848 14 116 0.0 1.6 0.00 0.00 0.00 87 1015.9
20260902123741 14 116 0.0 1.6 0.00 0.00 0.00 87 1015.9
20260902123649 14 116 0.0 3.2 0.00 0.00 0.00 87 1016.0
20260902123553 14 115 1.6 6.4 0.00 0.00 0.00 86 1016.0
20260902123451 14 115 1.6 6.4 0.00 0.00 0.00 86 1016.0
20260902123348 14 116 1.6 6.4 0.00 0.00 0.00 86 1016.0
20260902123242 14 115 1.6 6.4 0.00 0.00 0.00 86 1016.0
20260902123148 14 116 1.6 6.4 0.00 0.00 0.00 86 1016.0
20260902123052 14 116 1.6 6.4 0.00 0.00 0.00 86 1016.0
20260902122948 14 115 1.6 6.4 0.00 0.00 0.00 87 1016.0
20260902122848 14 116 1.6 6.4 0.00 0.00 0.00 87 1015.9
20260902122752 14 113 1.6 6.4 0.00 0.00 0.00 87 1016.0
20260902122742 14 106 1.6 6.4 0.00 0.00 0.00 87 1016.0
20260902122649 14 103 1.6 6.4 0.00 0.00 0.00 87 1015.9
20260902122545 14 78 1.6 6.4 0.00 0.00 0.00 87 1015.9
20260902122445 14 101 0.0 6.4 0.00 0.00 0.00 87 1016.0
20260902122344 14 104 0.0 6.4 0.00 0.00 0.00 87 1016.0
20260902122245 14 132 0.0 1.6 0.00 0.00 0.00 87 1015.9
20260902122144 14 103 0.0 1.6 0.00 0.00 0.00 87 1015.9
20260902122042 14 103 0.0 1.6 0.00 0.00 0.00 87 1015.9
20260902121942 14 103 0.0 1.6 0.00 0.00 0.00 87 1016.0
20260902121842 14 103 0.0 1.6 0.00 0.00 0.00 87 1015.9
20260902121744 14 103 0.0 1.6 0.00 0.00 0.00 87 1015.9
20260902121643 14 103 0.0 1.6 0.00 0.00 0.00 87 1015.9
20260902121543 14 103 0.0 1.6 0.00 0.00 0.00 87 1015.9
20260902121443 14 103 0.0 1.6 0.00 0.00 0.00 87 1015.9
20260902121342 14 103 0.0 1.6 0.00 0.00 0.00 87 1015.9
20260902121237 14 103 0.0 1.6 0.00 0.00 0.00 87 1015.9
20260902121142 14 103 0.0 1.6 0.00 0.00 0.00 87 1015.9
20260902121042 14 103 0.0 1.6 0.00 0.00 0.00 87 1015.9
20260902121005 14 103 0.0 1.6 0.00 0.00 0.00 87 1015.9
20260902120942 14 103 0.0 1.6 0.00 0.00 0.00 87 1015.9
20260902120858 14 103 0.0 1.6 0.00 0.00 0.00 87 1015.9
20260902120848 14 103 0.0 1.6 0.00 0.00 0.00 87 1015.9
20260902120640 14 103 0.0 1.6 0.00 0.00 0.00 87 1015.8
20260902120539 14 103 0.0 1.6 0.00 0.00 0.00 87 1015.8
20260902120438 14 103 0.0 1.6 0.00 0.00 0.00 87 1015.8
20260902120338 14 103 0.0 1.6 0.00 0.00 0.00 87 1015.9
20260902120239 14 103 0.0 1.6 0.00 0.00 0.00 87 1015.9
20260902120138 14 103 0.0 1.6 0.00 0.00 0.00 87 1015.9
20260902120038 14 103 0.0 1.6 0.00 0.00 0.00 87 1015.9
20260902115938 14 103 0.0 1.6 0.00 0.00 0.00 87 1015.9
20260902115838 14 103 0.0 1.6 0.00 0.00 0.00 87 1015.8
20260902115733 14 103 0.0 1.6 0.00 0.00 0.00 86 1015.8
20260902115638 14 103 0.0 1.6 0.00 0.00 0.00 86 1015.8
20260902115536 14 103 0.0 1.6 0.00 0.00 0.00 86 1015.8
20260902115504 14 103 0.0 3.2 0.00 0.00 0.00 86 1015.8
20260902115436 14 103 0.0 1.6 0.00 0.00 0.00 86 1015.8
20260902115348 14 103 0.0 3.2 0.00 0.00 0.00 86 1015.7
20260902115339 14 103 0.0 3.2 0.00 0.00 0.00 86 1015.8
20260902115136 14 103 0.0 3.2 0.00 0.00 0.00 86 1015.8
20260902115036 14 103 0.0 3.2 0.00 0.00 0.00 86 1015.8
20260902114936 14 103 0.0 3.2 0.00 0.00 0.00 86 1015.8
20260902114836 14 103 0.0 3.2 0.00 0.00 0.00 86 1015.8
20260902114729 14 103 0.0 3.2 0.00 0.00 0.00 86 1015.8
20260902114634 14 103 0.0 3.2 0.00 0.00 0.00 86 1015.8
20260902114534 14 103 0.0 3.2 0.00 0.00 0.00 86 1015.8
20260902114452 14 110 0.0 3.2 0.00 0.00 0.00 86 1015.9
20260902114434 14 103 0.0 3.2 0.00 0.00 0.00 86 1015.8
20260902114348 14 103 0.0 3.2 0.00 0.00 0.00 86 1015.8
20260902114338 14 110 0.0 3.2 0.00 0.00 0.00 86 1015.9
20260902114130 14 110 0.0 3.2 0.00 0.00 0.00 86 1015.9
20260902114030 14 110 0.0 3.2 0.00 0.00 0.00 86 1015.9
20260902113930 14 110 0.0 3.2 0.00 0.00 0.00 86 1015.8
20260902113831 14 110 0.0 3.2 0.00 0.00 0.00 86 1015.8
20260902113726 14 110 0.0 3.2 0.00 0.00 0.00 86 1015.9
20260902113626 14 110 0.0 3.2 0.00 0.00 0.00 86 1015.9
20260902113526 14 110 0.0 1.6 0.00 0.00 0.00 86 1015.9
20260902113424 14 110 0.0 3.2 0.00 0.00 0.00 86 1015.9
20260902113322 14 110 0.0 4.8 0.00 0.00 0.00 86 1015.9
20260902113222 14 149 0.0 4.8 0.00 0.00 0.00 86 1015.9
20260902113122 14 150 0.0 4.8 0.00 0.00 0.00 86 1015.8
20260902113023 14 150 0.0 4.8 0.00 0.00 0.00 85 1015.8
20260902112922 14 150 0.0 4.8 0.00 0.00 0.00 85 1015.8
20260902112822 14 133 0.0 4.8 0.00 0.00 0.00 85 1015.8
20260902112741 14 133 0.0 4.8 0.00 0.00 0.00 85 1015.8
20260902112721 14 132 0.0 4.8 0.00 0.00 0.00 85 1015.8
20260902112620 14 132 0.0 4.8 0.00 0.00 0.00 85 1015.8
20260902112520 14 132 0.0 4.8 0.00 0.00 0.00 85 1015.8
20260902112420 14 134 0.0 4.8 0.00 0.00 0.00 85 1015.8
20260902112320 14 141 0.0 3.2 0.00 0.00 0.00 85 1015.8
20260902112220 14 141 0.0 3.2 0.00 0.00 0.00 85 1015.8
20260902112118 14 141 1.6 4.8 0.00 0.00 0.00 85 1015.8
20260902112014 14 141 1.6 4.8 0.00 0.00 0.00 85 1015.8
20260902111913 14 141 1.6 4.8 0.00 0.00 0.00 85 1015.8
20260902111812 14 141 1.6 4.8 0.00 0.00 0.00 85 1015.8
20260902111727 15 141 1.6 4.8 0.00 0.00 0.00 85 1015.8
20260902111712 15 141 1.6 4.8 0.00 0.00 0.00 85 1015.7
20260902111612 15 141 1.6 4.8 0.00 0.00 0.00 85 1015.8
20260902111512 15 141 1.6 4.8 0.00 0.00 0.00 85 1015.7
20260902111426 15 146 1.6 4.8 0.00 0.00 0.00 85 1015.8
20260902111312 14 145 1.6 4.8 0.00 0.00 0.00 85 1015.7
20260902111227 14 127 1.6 4.8 0.00 0.00 0.00 85 1015.7
20260902111212 14 155 1.6 4.8 0.00 0.00 0.00 85 1015.7
20260902111113 14 166 1.6 4.8 0.00 0.00 0.00 85 1015.7
20260902111012 14 144 1.6 3.2 0.00 0.00 0.00 85 1015.7
20260902110952 14 138 1.6 3.2 0.00 0.00 0.00 85 1015.7
20260902110912 14 139 1.6 3.2 0.00 0.00 0.00 85 1015.7
20260902110839 14 138 1.6 3.2 0.00 0.00 0.00 85 1015.7
20260902110711 14 138 1.6 3.2 0.00 0.00 0.00 85 1015.7
20260902110610 14 138 1.6 3.2 0.00 0.00 0.00 85 1015.8
20260902110510 14 139 1.6 3.2 0.00 0.00 0.00 85 1015.8
20260902110411 14 138 1.6 3.2 0.00 0.00 0.00 85 1015.8
20260902110310 14 129 1.6 3.2 0.00 0.00 0.00 85 1015.8
20260902110238 14 128 1.6 3.2 0.00 0.00 0.00 85 1015.8
20260902110208 14 129 1.6 3.2 0.00 0.00 0.00 85 1015.8
20260902110108 14 129 1.6 3.2 0.00 0.00 0.00 85 1015.8
20260902110008 14 139 1.6 3.2 0.00 0.00 0.00 85 1015.9
20260902105906 14 131 1.6 3.2 0.00 0.00 0.00 85 1015.9
20260902105806 14 129 1.6 3.2 0.00 0.00 0.00 85 1015.9
20260902105721 14 132 1.6 3.2 0.00 0.00 0.00 85 1015.9
20260902105706 14 124 1.6 3.2 0.00 0.00 0.00 85 1015.9
20260902105606 14 137 1.6 3.2 0.00 0.00 0.00 85 1015.9
20260902105506 14 138 1.6 3.2 0.00 0.00 0.00 85 1016.0
20260902105444 14 129 0.0 3.2 0.00 0.00 0.00 85 1016.0
20260902105406 14 148 1.6 3.2 0.00 0.00 0.00 85 1016.0
20260902105330 14 148 0.0 3.2 0.00 0.00 0.00 85 1016.0
20260902105205 14 129 0.0 3.2 0.00 0.00 0.00 85 1016.1
20260902105106 14 129 0.0 3.2 0.00 0.00 0.00 85 1016.0
20260902105006 14 124 0.0 3.2 0.00 0.00 0.00 85 1016.1
20260902104906 14 129 0.0 3.2 0.00 0.00 0.00 85 1016.1
20260902104806 14 158 0.0 1.6 0.00 0.00 0.00 85 1016.1
20260902104706 14 158 0.0 1.6 0.00 0.00 0.00 85 1016.1
20260902104607 14 158 0.0 1.6 0.00 0.00 0.00 86 1016.1
20260902104505 14 158 0.0 1.6 0.00 0.00 0.00 85 1016.1
20260902104404 14 132 0.0 3.2 0.00 0.00 0.00 85 1016.0
20260902104304 14 132 0.0 3.2 0.00 0.00 0.00 85 1016.0
20260902104220 14 133 0.0 3.2 0.00 0.00 0.00 85 1016.0
20260902104204 14 132 0.0 3.2 0.00 0.00 0.00 85 1016.0
20260902104102 14 132 0.0 3.2 0.00 0.00 0.00 85 1016.0
20260902104003 14 110 0.0 3.2 0.00 0.00 0.00 85 1016.0
20260902103943 14 110 0.0 3.2 0.00 0.00 0.00 85 1016.0
20260902103902 14 110 0.0 3.2 0.00 0.00 0.00 85 1016.0
20260902103832 14 110 0.0 3.2 0.00 0.00 0.00 85 1016.0
20260902103701 14 110 1.6 3.2 0.00 0.00 0.00 85 1016.0
20260902103602 14 110 1.6 3.2 0.00 0.00 0.00 85 1016.0
20260902103503 14 110 1.6 4.8 0.00 0.00 0.00 85 1016.0
20260902103445 14 212 1.6 4.8 0.00 0.00 0.00 85 1016.0
20260902103402 14 212 1.6 4.8 0.00 0.00 0.00 85 1016.0
20260902103330 14 212 1.6 4.8 0.00 0.00 0.00 85 1016.0
20260902103200 14 212 1.6 4.8 0.00 0.00 0.00 85 1016.0
20260902103100 14 193 1.6 4.8 0.00 0.00 0.00 85 1016.1
20260902103001 14 193 1.6 4.8 0.00 0.00 0.00 85 1016.1
20260902102900 14 124 1.6 4.8 0.00 0.00 0.00 85 1016.1
20260902102758 14 124 1.6 4.8 0.00 0.00 0.00 85 1016.1
20260902102719 14 127 1.6 4.8 0.00 0.00 0.00 85 1016.1
20260902102656 14 116 1.6 4.8 0.00 0.00 0.00 85 1016.1
20260902102557 14 155 1.6 4.8 0.00 0.00 0.00 85 1016.1
20260902102503 14 133 1.6 4.8 0.00 0.00 0.00 85 1016.1
20260902102357 14 136 1.6 4.8 0.00 0.00 0.00 85 1016.1
20260902102257 14 134 1.6 4.8 0.00 0.00 0.00 85 1016.1
20260902102218 14 139 1.6 3.2 0.00 0.00 0.00 85 1016.1
20260902102156 14 138 1.6 3.2 0.00 0.00 0.00 85 1016.1
20260902102056 14 139 0.0 3.2 0.00 0.00 0.00 85 1016.1
20260902101956 14 141 0.0 3.2 0.00 0.00 0.00 85 1016.2
20260902101856 14 141 0.0 3.2 0.00 0.00 0.00 85 1016.2
20260902101756 14 136 0.0 1.6 0.00 0.00 0.00 85 1016.2
20260902101718 14 136 0.0 1.6 0.00 0.00 0.00 85 1016.2
20260902101656 14 136 0.0 1.6 0.00 0.00 0.00 85 1016.2
20260902101557 14 136 0.0 1.6 0.00 0.00 0.00 85 1016.3
20260902101456 14 136 0.0 1.6 0.00 0.00 0.00 85 1016.2
20260902101356 14 137 0.0 3.2 0.00 0.00 0.00 85 1016.3
20260902101256 14 136 0.0 3.2 0.00 0.00 0.00 85 1016.3
20260902101215 14 137 0.0 3.2 0.00 0.00 0.00 85 1016.3
20260902101154 14 121 0.0 3.2 0.00 0.00 0.00 85 1016.3
20260902101053 14 117 0.0 3.2 0.00 0.00 0.00 85 1016.3
20260902100953 14 115 0.0 3.2 0.00 0.00 0.00 85 1016.3
20260902100852 14 103 0.0 3.2 0.00 0.00 0.00 85 1016.3
20260902100752 14 103 0.0 3.2 0.00 0.00 0.00 85 1016.3
20260902100713 14 103 0.0 3.2 0.00 0.00 0.00 85 1016.3
20260902100652 14 103 0.0 3.2 0.00 0.00 0.00 85 1016.3
20260902100553 14 103 0.0 3.2 0.00 0.00 0.00 85 1016.3
20260902100451 14 103 0.0 3.2 0.00 0.00 0.00 85 1016.3
20260902100352 14 101 0.0 3.2 0.00 0.00 0.00 85 1016.3
20260902100252 14 100 0.0 3.2 0.00 0.00 0.00 85 1016.3
20260902100208 14 115 0.0 1.6 0.00 0.00 0.00 85 1016.3
20260902100150 14 127 0.0 1.6 0.00 0.00 0.00 85 1016.3
20260902100051 14 127 0.0 1.6 0.00 0.00 0.00 85 1016.3
20260902095950 14 127 1.6 1.6 0.00 0.00 0.00 85 1016.3
20260902095851 14 127 1.6 3.2 0.00 0.00 0.00 86 1016.3
20260902095708 14 127 1.6 3.2 0.00 0.00 0.00 86 1016.3
20260902095648 14 127 1.6 3.2 0.00 0.00 0.00 86 1016.3
20260902095549 14 127 1.6 3.2 0.00 0.00 0.00 86 1016.3
20260902095448 14 127 1.6 3.2 0.00 0.00 0.00 86 1016.3
20260902095429 14 127 1.6 3.2 0.00 0.00 0.00 86 1016.3
20260902095349 14 127 1.6 3.2 0.00 0.00 0.00 86 1016.3
20260902095319 14 127 1.6 3.2 0.00 0.00 0.00 86 1016.3
20260902095148 14 127 1.6 3.2 0.00 0.00 0.00 86 1016.3
20260902095049 14 124 0.0 3.2 0.00 0.00 0.00 86 1016.3
20260902094948 14 124 0.0 3.2 0.00 0.00 0.00 86 1016.3
20260902094848 14 124 0.0 3.2 0.00 0.00 0.00 86 1016.2
20260902094746 14 124 0.0 3.2 0.00 0.00 0.00 86 1016.3
20260902094720 14 124 0.0 3.2 0.00 0.00 0.00 86 1016.2
20260902094646 14 124 0.0 1.6 0.00 0.00 0.00 86 1016.2
20260902094547 14 134 0.0 1.6 0.00 0.00 0.00 86 1016.2
20260902094444 14 134 0.0 1.6 0.00 0.00 0.00 86 1016.2
20260902094344 14 134 0.0 1.6 0.00 0.00 0.00 86 1016.2
20260902094244 14 134 0.0 3.2 0.00 0.00 0.00 86 1016.2
20260902094206 14 134 0.0 3.2 0.00 0.00 0.00 86 1016.2
20260902094144 14 134 0.0 3.2 0.00 0.00 0.00 86 1016.2
20260902094042 14 134 0.0 3.2 0.00 0.00 0.00 86 1016.2
20260902093942 14 134 1.6 4.8 0.00 0.00 0.00 86 1016.2
20260902093843 14 134 1.6 6.4 0.00 0.00 0.00 86 1016.2
20260902093740 14 134 1.6 6.4 0.00 0.00 0.00 86 1016.2
20260902093706 14 134 1.6 6.4 0.00 0.00 0.00 86 1016.3
20260902093638 14 136 1.6 6.4 0.00 0.00 0.00 86 1016.3
20260902093538 14 136 1.6 6.4 0.00 0.00 0.00 86 1016.3
20260902093440 14 135 1.6 6.4 0.00 0.00 0.00 86 1016.3
20260902093333 14 136 1.6 6.4 0.00 0.00 0.00 86 1016.3
20260902093234 14 138 1.6 6.4 0.00 0.00 0.00 86 1016.3
20260902093204 14 139 1.6 6.4 0.00 0.00 0.00 86 1016.3
20260902093135 14 138 1.6 6.4 0.00 0.00 0.00 86 1016.3
20260902093032 14 139 1.6 6.4 0.00 0.00 0.00 86 1016.3
20260902092932 14 131 1.6 6.4 0.00 0.00 0.00 85 1016.3
20260902092832 14 137 1.6 6.4 0.00 0.00 0.00 85 1016.3
20260902092730 14 130 1.6 6.4 0.00 0.00 0.00 85 1016.3
20260902092701 14 129 0.0 6.4 0.00 0.00 0.00 85 1016.3
20260902092630 14 149 0.0 6.4 0.00 0.00 0.00 85 1016.3
20260902092530 14 99 1.6 6.4 0.00 0.00 0.00 85 1016.3
20260902092434 14 99 1.6 6.4 0.00 0.00 0.00 85 1016.3
20260902092331 14 113 0.0 6.4 0.00 0.00 0.00 85 1016.3
20260902092228 14 97 0.0 3.2 0.00 0.00 0.00 85 1016.3
20260902092201 14 115 0.0 3.2 0.00 0.00 0.00 85 1016.3
20260902092128 14 115 0.0 3.2 0.00 0.00 0.00 85 1016.3
20260902092028 14 141 0.0 3.2 0.00 0.00 0.00 85 1016.3
20260902091928 14 141 0.0 3.2 0.00 0.00 0.00 85 1016.3
20260902091828 14 108 0.0 3.2 0.00 0.00 0.00 85 1016.3
20260902091728 14 108 0.0 3.2 0.00 0.00 0.00 85 1016.3
20260902091701 14 108 0.0 3.2 0.00 0.00 0.00 85 1016.3
20260902091628 14 108 0.0 3.2 0.00 0.00 0.00 85 1016.3
20260902091529 14 107 0.0 1.6 0.00 0.00 0.00 85 1016.3
20260902091433 14 108 0.0 3.2 0.00 0.00 0.00 85 1016.3
20260902091329 14 107 0.0 3.2 0.00 0.00 0.00 85 1016.3
20260902091228 14 108 0.0 3.2 0.00 0.00 0.00 85 1016.3
20260902091159 14 108 1.6 3.2 0.00 0.00 0.00 85 1016.3
20260902091128 14 107 1.6 3.2 0.00 0.00 0.00 85 1016.3
20260902091028 14 107 1.6 3.2 0.00 0.00 0.00 85 1016.3
20260902090928 14 108 1.6 3.2 0.00 0.00 0.00 84 1016.3
20260902090828 14 108 1.6 3.2 0.00 0.00 0.00 84 1016.3
20260902090728 14 107 1.6 3.2 0.00 0.00 0.00 84 1016.3
20260902090659 14 107 1.6 3.2 0.00 0.00 0.00 85 1016.2
20260902090626 14 108 1.6 6.4 0.00 0.00 0.00 85 1016.2
20260902090526 14 108 1.6 6.4 0.00 0.00 0.00 85 1016.2
20260902090429 14 103 1.6 6.4 0.00 0.00 0.00 85 1016.2
20260902090224 14 113 1.6 6.4 0.00 0.00 0.00 85 1016.2
20260902090210 14 113 1.6 6.4 0.00 0.00 0.00 85 1016.2
20260902090125 14 113 1.6 6.4 0.00 0.00 0.00 85 1016.2
20260902090024 14 143 1.6 6.4 0.00 0.00 0.00 84 1016.2
20260902085927 14 143 1.6 6.4 0.00 0.00 0.00 84 1016.2
20260902085919 14 154 3.2 6.4 0.00 0.00 0.00 84 1016.2
20260902085824 14 143 1.6 6.4 0.00 0.00 0.00 84 1016.2
20260902085808 14 143 3.2 6.4 0.00 0.00 0.00 84 1016.2
20260902085620 14 143 3.2 6.4 0.00 0.00 0.00 84 1016.2
20260902085520 14 117 3.2 6.4 0.00 0.00 0.00 84 1016.2
20260902085420 14 135 3.2 6.4 0.00 0.00 0.00 84 1016.2
20260902085320 14 176 3.2 6.4 0.00 0.00 0.00 84 1016.2
20260902085220 14 146 3.2 6.4 0.00 0.00 0.00 84 1016.2
20260902085157 14 145 3.2 6.4 0.00 0.00 0.00 84 1016.2
20260902085120 14 136 3.2 6.4 0.00 0.00 0.00 84 1016.2
20260902085020 14 148 3.2 6.4 0.00 0.00 0.00 84 1016.2
20260902084920 14 137 3.2 6.4 0.00 0.00 0.00 84 1016.2
20260902084820 14 135 3.2 6.4 0.00 0.00 0.00 84 1016.2
20260902084720 14 131 3.2 6.4 0.00 0.00 0.00 84 1016.2
20260902084657 14 131 1.6 6.4 0.00 0.00 0.00 84 1016.2
20260902084619 14 122 1.6 6.4 0.00 0.00 0.00 85 1016.2
20260902084518 14 131 1.6 6.4 0.00 0.00 0.00 84 1016.2
20260902084418 14 121 1.6 6.4 0.00 0.00 0.00 84 1016.2
20260902084318 14 139 1.6 6.4 0.00 0.00 0.00 84 1016.2
20260902084218 14 143 1.6 8.0 0.00 0.00 0.00 84 1016.3
20260902084155 14 129 1.6 8.0 0.00 0.00 0.00 84 1016.3
20260902084118 14 135 1.6 8.0 0.00 0.00 0.00 85 1016.3
20260902084016 14 191 1.6 8.0 0.00 0.00 0.00 84 1016.3
20260902083916 14 210 1.6 8.0 0.00 0.00 0.00 85 1016.3
20260902083816 14 210 1.6 8.0 0.00 0.00 0.00 84 1016.2
20260902083716 14 139 1.6 8.0 0.00 0.00 0.00 84 1016.2
20260902083653 14 138 1.6 8.0 0.00 0.00 0.00 84 1016.2
20260902083616 14 139 1.6 8.0 0.00 0.00 0.00 84 1016.2
20260902083516 14 146 1.6 8.0 0.00 0.00 0.00 84 1016.2
20260902083416 14 145 1.6 8.0 0.00 0.00 0.00 84 1016.2
20260902083316 14 145 1.6 8.0 0.00 0.00 0.00 84 1016.2
20260902083216 14 143 1.6 6.4 0.00 0.00 0.00 84 1016.2
20260902083154 14 131 1.6 6.4 0.00 0.00 0.00 84 1016.2
20260902083116 14 117 1.6 4.8 0.00 0.00 0.00 84 1016.2
20260902083016 14 133 1.6 4.8 0.00 0.00 0.00 84 1016.2
20260902082916 14 146 3.2 8.0 0.00 0.00 0.00 84 1016.2
20260902082815 14 129 3.2 8.0 0.00 0.00 0.00 84 1016.2
20260902082716 14 136 3.2 8.0 0.00 0.00 0.00 84 1016.2
20260902082653 14 135 3.2 8.0 0.00 0.00 0.00 84 1016.2
20260902082615 14 124 3.2 8.0 0.00 0.00 0.00 84 1016.2
20260902082514 14 146 3.2 8.0 0.00 0.00 0.00 84 1016.2
20260902082424 14 140 3.2 8.0 0.00 0.00 0.00 84 1016.2
20260902082414 14 136 3.2 8.0 0.00 0.00 0.00 84 1016.2
20260902082314 14 165 3.2 8.0 0.00 0.00 0.00 84 1016.2
20260902082308 14 139 3.2 8.0 0.00 0.00 0.00 84 1016.2
20260902082112 14 158 3.2 8.0 0.00 0.00 0.00 84 1016.2
20260902082013 14 156 3.2 8.0 0.00 0.00 0.00 84 1016.2
20260902081912 14 134 1.6 4.8 0.00 0.00 0.00 84 1016.2
20260902081812 14 136 1.6 4.8 0.00 0.00 0.00 84 1016.2
20260902081712 14 159 1.6 4.8 0.00 0.00 0.00 84 1016.2
20260902081651 14 135 1.6 4.8 0.00 0.00 0.00 84 1016.2
20260902081610 14 146 1.6 4.8 0.00 0.00 0.00 84 1016.1
20260902081510 14 163 1.6 4.8 0.00 0.00 0.00 84 1016.2
20260902081410 14 146 1.6 4.8 0.00 0.00 0.00 84 1016.2
20260902081310 14 146 1.6 4.8 0.00 0.00 0.00 84 1016.2
20260902081210 14 145 1.6 4.8 0.00 0.00 0.00 84 1016.1
20260902081151 14 159 1.6 3.2 0.00 0.00 0.00 84 1016.1
20260902081110 14 146 1.6 4.8 0.00 0.00 0.00 84 1016.2
20260902081010 14 143 1.6 4.8 0.00 0.00 0.00 83 1016.1
20260902080907 14 137 1.6 4.8 0.00 0.00 0.00 83 1016.2
20260902080804 14 169 1.6 4.8 0.00 0.00 0.00 84 1016.2
20260902080704 14 93 1.6 4.8 0.00 0.00 0.00 84 1016.1
20260902080649 14 94 1.6 4.8 0.00 0.00 0.00 84 1016.1
20260902080602 14 96 1.6 4.8 0.00 0.00 0.00 84 1016.1
20260902080502 14 116 1.6 4.8 0.00 0.00 0.00 84 1016.1
20260902080356 14 132 1.6 4.8 0.00 0.00 0.00 83 1016.1
20260902080256 15 133 1.6 4.8 0.00 0.00 0.00 83 1016.1
20260902080159 15 150 1.6 4.8 0.00 0.00 0.00 83 1016.2
20260902080149 15 161 1.6 4.8 0.00 0.00 0.00 83 1016.2
20260902080058 15 138 1.6 3.2 0.00 0.00 0.00 83 1016.1
20260902075957 15 146 1.6 3.2 0.00 0.00 0.00 83 1016.1
20260902075856 15 146 1.6 3.2 0.00 0.00 0.00 83 1016.1
20260902075756 15 99 1.6 4.8 0.00 0.00 0.00 83 1016.1
20260902075650 15 99 1.6 4.8 0.00 0.00 0.00 83 1016.0
20260902075555 15 99 1.6 4.8 0.00 0.00 0.00 83 1016.1
20260902075453 15 99 1.6 4.8 0.00 0.00 0.00 83 1016.1
20260902075352 15 99 1.6 4.8 0.00 0.00 0.00 83 1016.0
20260902075252 15 136 3.2 6.4 0.00 0.00 0.00 83 1016.0
20260902075153 15 136 3.2 9.7 0.00 0.00 0.00 83 1016.0
20260902075053 15 136 3.2 9.7 0.00 0.00 0.00 83 1016.0
20260902074951 15 148 3.2 9.7 0.00 0.00 0.00 83 1016.0
20260902074850 15 148 3.2 9.7 0.00 0.00 0.00 83 1016.0
20260902074750 15 134 4.8 9.7 0.00 0.00 0.00 83 1016.0
20260902074652 15 133 4.8 9.7 0.00 0.00 0.00 83 1016.0
20260902074646 15 132 4.8 9.7 0.00 0.00 0.00 83 1016.0
20260902074549 15 163 4.8 9.7 0.00 0.00 0.00 83 1015.9
20260902074447 15 141 4.8 9.7 0.00 0.00 0.00 83 1015.9
20260902074346 15 141 3.2 9.7 0.00 0.00 0.00 83 1016.0
20260902074246 15 124 3.2 9.7 0.00 0.00 0.00 83 1016.0
20260902074151 15 199 3.2 8.0 0.00 0.00 0.00 83 1015.9
20260902074145 15 180 3.2 8.0 0.00 0.00 0.00 83 1015.9
20260902074047 15 143 3.2 8.0 0.00 0.00 0.00 83 1015.9
20260902073944 15 160 3.2 8.0 0.00 0.00 0.00 83 1016.0
20260902073844 15 121 1.6 6.4 0.00 0.00 0.00 83 1016.0
20260902073743 15 141 1.6 6.4 0.00 0.00 0.00 83 1016.0
20260902073650 15 149 1.6 6.4 0.00 0.00 0.00 83 1016.0
20260902073644 15 150 1.6 6.4 0.00 0.00 0.00 83 1016.0
20260902073547 15 142 1.6 6.4 0.00 0.00 0.00 83 1016.0
20260902073440 15 158 1.6 6.4 0.00 0.00 0.00 83 1016.0
20260902073338 15 124 1.6 6.4 0.00 0.00 0.00 83 1016.0
20260902073238 15 141 1.6 6.4 0.00 0.00 0.00 83 1016.0
20260902073144 15 150 1.6 6.4 0.00 0.00 0.00 83 1016.1
20260902073138 15 149 1.6 6.4 0.00 0.00 0.00 83 1016.1
20260902073038 15 150 1.6 6.4 0.00 0.00 0.00 83 1016.0
20260902072936 15 128 3.2 6.4 0.00 0.00 0.00 83 1016.0
20260902072836 15 136 3.2 6.4 0.00 0.00 0.00 83 1016.0
20260902072736 15 145 3.2 6.4 0.00 0.00 0.00 83 1016.0
20260902072641 15 132 1.6 6.4 0.00 0.00 0.00 83 1016.0
20260902072636 15 139 1.6 6.4 0.00 0.00 0.00 83 1016.0
20260902072536 15 129 3.2 6.4 0.00 0.00 0.00 83 1015.9
20260902072434 15 136 3.2 6.4 0.00 0.00 0.00 83 1015.9
20260902072335 15 127 1.6 6.4 0.00 0.00 0.00 83 1015.9
20260902072234 15 134 3.2 6.4 0.00 0.00 0.00 83 1015.9
20260902072141 15 138 3.2 6.4 0.00 0.00 0.00 83 1015.9
20260902072134 15 136 3.2 6.4 0.00 0.00 0.00 83 1015.9
20260902072034 15 119 3.2 6.4 0.00 0.00 0.00 83 1015.9
20260902071934 15 158 3.2 6.4 0.00 0.00 0.00 83 1015.9
20260902071834 15 142 3.2 6.4 0.00 0.00 0.00 83 1015.9
20260902071642 15 149 3.2 9.7 0.00 0.00 0.00 82 1015.9
20260902071633 15 150 3.2 9.7 0.00 0.00 0.00 82 1015.9
20260902071532 15 172 3.2 9.7 0.00 0.00 0.00 82 1015.9
20260902071433 15 143 3.2 9.7 0.00 0.00 0.00 82 1015.9
20260902071332 15 110 3.2 9.7 0.00 0.00 0.00 82 1015.9
20260902071231 15 95 3.2 9.7 0.00 0.00 0.00 82 1015.9
20260902071142 15 109 3.2 9.7 0.00 0.00 0.00 82 1015.9
20260902071136 15 103 3.2 9.7 0.00 0.00 0.00 82 1015.9
20260902071126 15 81 1.6 8.0 0.00 0.00 0.00 82 1015.9
20260902071032 15 113 3.2 9.7 0.00 0.00 0.00 82 1015.9
20260902071013 15 96 3.2 9.7 0.00 0.00 0.00 82 1015.9
20260902070831 15 98 3.2 9.7 0.00 0.00 0.00 82 1015.9
20260902070751 15 88 1.6 9.7 0.00 0.00 0.00 82 1015.9
20260902070632 15 110 1.6 8.0 0.00 0.00 0.00 82 1015.9
20260902070532 15 101 1.6 6.4 0.00 0.00 0.00 82 1015.9
20260902070432 15 110 1.6 6.4 0.00 0.00 0.00 82 1015.9
20260902070404 15 129 1.6 6.4 0.00 0.00 0.00 82 1015.9
20260902070332 15 110 1.6 6.4 0.00 0.00 0.00 82 1015.9
20260902070251 15 108 1.6 6.4 0.00 0.00 0.00 82 1015.9
20260902070132 15 110 1.6 6.4 0.00 0.00 0.00 82 1015.9
20260902070032 15 114 1.6 6.4 0.00 0.00 0.00 82 1015.8
20260902065930 15 114 1.6 6.4 0.00 0.00 0.00 82 1015.8
20260902065830 15 114 1.6 6.4 0.00 0.00 0.00 82 1015.8
20260902065730 15 114 3.2 6.4 0.00 0.00 0.00 82 1015.8
20260902065631 15 107 3.2 6.4 0.00 0.00 0.00 82 1015.8
20260902065527 15 92 3.2 6.4 0.00 0.00 0.00 82 1015.8
20260902065428 15 121 3.2 6.4 0.00 0.00 0.00 81 1015.8
20260902065324 15 121 3.2 6.4 0.00 0.00 0.00 81 1015.9
20260902065225 15 113 3.2 6.4 0.00 0.00 0.00 81 1015.9
20260902065138 15 91 1.6 6.4 0.00 0.00 0.00 81 1015.8
20260902065125 15 114 1.6 6.4 0.00 0.00 0.00 81 1015.8
20260902065023 15 107 1.6 6.4 0.00 0.00 0.00 81 1015.8
20260902064921 15 113 1.6 6.4 0.00 0.00 0.00 81 1015.8
20260902064857 16 129 1.6 4.8 0.00 0.00 0.00 81 1015.8
20260902064815 16 107 1.6 6.4 0.00 0.00 0.00 81 1015.9
20260902064746 16 116 1.6 4.8 0.00 0.00 0.00 81 1015.8
20260902064614 16 117 1.6 4.8 0.00 0.00 0.00 81 1015.8
20260902064515 16 120 1.6 6.4 0.00 0.00 0.00 81 1015.8
20260902064414 16 102 1.6 6.4 0.00 0.00 0.00 81 1015.8
20260902064311 16 107 1.6 6.4 0.00 0.00 0.00 81 1015.8
20260902064211 16 136 1.6 6.4 0.00 0.00 0.00 82 1015.7
20260902064134 16 138 1.6 6.4 0.00 0.00 0.00 81 1015.7
20260902064115 16 138 1.6 6.4 0.00 0.00 0.00 82 1015.7
20260902064111 16 138 3.2 6.4 0.00 0.00 0.00 81 1015.8
20260902064013 16 145 3.2 6.4 0.00 0.00 0.00 81 1015.7
20260902064005 16 146 3.2 6.4 0.00 0.00 0.00 81 1015.7
20260902063805 16 149 3.2 6.4 0.00 0.00 0.00 82 1015.8
20260902063743 16 162 1.6 6.4 0.00 0.00 0.00 82 1015.7
20260902063603 16 144 1.6 6.4 0.00 0.00 0.00 82 1015.8
20260902063503 16 131 1.6 6.4 0.00 0.00 0.00 81 1015.8
20260902063403 16 134 1.6 6.4 0.00 0.00 0.00 81 1015.8
20260902063257 16 121 1.6 6.4 0.00 0.00 0.00 81 1015.8
20260902063134 16 134 1.6 6.4 0.00 0.00 0.00 81 1015.8
20260902063056 16 134 1.6 6.4 0.00 0.00 0.00 81 1015.8
20260902062956 16 148 1.6 3.2 0.00 0.00 0.00 81 1015.9
20260902062857 16 130 1.6 3.2 0.00 0.00 0.00 81 1015.8
20260902062751 16 139 1.6 3.2 0.00 0.00 0.00 81 1015.9
20260902062631 16 127 1.6 4.8 0.00 0.00 0.00 81 1015.9
20260902062551 16 121 1.6 4.8 0.00 0.00 0.00 81 1015.9
20260902062450 16 121 1.6 4.8 0.00 0.00 0.00 81 1015.9
20260902062350 16 134 1.6 6.4 0.00 0.00 0.00 81 1015.8
20260902062250 16 136 1.6 6.4 0.00 0.00 0.00 81 1015.8
20260902062132 16 135 1.6 6.4 0.00 0.00 0.00 81 1015.8
20260902062050 16 136 3.2 8.0 0.00 0.00 0.00 81 1015.8
20260902061948 16 136 3.2 11.3 0.00 0.00 0.00 81 1015.8
20260902061844 16 181 3.2 11.3 0.00 0.00 0.00 81 1015.8
20260902061742 16 150 3.2 11.3 0.00 0.00 0.00 81 1015.8
20260902061632 16 141 3.2 11.3 0.00 0.00 0.00 81 1015.8
20260902061555 16 169 3.2 11.3 0.00 0.00 0.00 81 1015.8
20260902061551 16 143 3.2 11.3 0.00 0.00 0.00 81 1015.8
20260902061343 16 228 3.2 11.3 0.00 0.00 0.00 81 1015.8
20260902061243 16 176 3.2 11.3 0.00 0.00 0.00 81 1015.8
20260902061130 16 226 3.2 11.3 0.00 0.00 0.00 81 1015.7
20260902061045 16 236 3.2 11.3 0.00 0.00 0.00 81 1015.7
20260902060939 16 194 3.2 11.3 0.00 0.00 0.00 81 1015.7
20260902060850 16 233 3.2 11.3 0.00 0.00 0.00 80 1015.7
20260902060838 16 204 3.2 11.3 0.00 0.00 0.00 80 1015.7
20260902060746 16 174 3.2 11.3 0.00 0.00 0.00 80 1015.8
20260902060738 16 233 3.2 11.3 0.00 0.00 0.00 80 1015.7
20260902060544 16 218 4.8 12.9 0.00 0.00 0.00 80 1015.8
20260902060438 16 141 4.8 12.9 0.00 0.00 0.00 80 1015.7
20260902060338 16 226 3.2 12.9 0.00 0.00 0.00 80 1015.7
20260902060238 16 235 4.8 12.9 0.00 0.00 0.00 80 1015.7
20260902060138 16 235 4.8 12.9 0.00 0.00 0.00 80 1015.8
20260902060128 16 200 4.8 12.9 0.00 0.00 0.00 80 1015.8
20260902060037 16 236 4.8 12.9 0.00 0.00 0.00 80 1015.7
20260902055934 16 236 4.8 12.9 0.00 0.00 0.00 80 1015.7
20260902055835 16 195 4.8 12.9 0.00 0.00 0.00 80 1015.8
20260902055732 16 232 4.8 12.9 0.00 0.00 0.00 80 1015.8
20260902055632 16 233 4.8 12.9 0.00 0.00 0.00 80 1015.8
20260902055530 16 229 4.8 11.3 0.00 0.00 0.00 80 1015.9
20260902055430 16 228 4.8 11.3 0.00 0.00 0.00 80 1015.8
20260902055330 16 232 4.8 11.3 0.00 0.00 0.00 80 1015.9
20260902055230 16 258 4.8 11.3 0.00 0.00 0.00 80 1015.8
20260902055131 16 267 4.8 9.7 0.00 0.00 0.00 80 1015.9
20260902055024 16 217 4.8 9.7 0.00 0.00 0.00 80 1015.8
20260902054925 16 228 4.8 14.5 0.00 0.00 0.00 80 1015.9
20260902054824 16 226 4.8 14.5 0.00 0.00 0.00 80 1015.8
20260902054722 16 231 4.8 14.5 0.00 0.00 0.00 80 1015.8
20260902054628 16 236 4.8 14.5 0.00 0.00 0.00 80 1015.9
20260902054623 16 242 4.8 14.5 0.00 0.00 0.00 80 1015.9
20260902054516 16 250 6.4 14.5 0.00 0.00 0.00 80 1015.9
20260902054424 16 239 6.4 14.5 0.00 0.00 0.00 80 1015.9
20260902054317 16 269 6.4 14.5 0.00 0.00 0.00 80 1015.9
20260902054217 16 239 6.4 14.5 0.00 0.00 0.00 80 1015.9
20260902054126 16 233 6.4 14.5 0.00 0.00 0.00 79 1015.9
20260902054116 16 219 6.4 16.1 0.00 0.00 0.00 79 1015.9
20260902054011 16 176 6.4 16.1 0.00 0.00 0.00 79 1015.9
20260902053911 16 236 6.4 16.1 0.00 0.00 0.00 79 1015.9
20260902053810 16 248 6.4 16.1 0.00 0.00 0.00 79 1015.9
20260902053710 16 204 6.4 16.1 0.00 0.00 0.00 79 1015.9
20260902053625 16 207 6.4 16.1 0.00 0.00 0.00 79 1015.9
20260902053611 16 238 6.4 17.7 0.00 0.00 0.00 79 1015.9
20260902053504 16 231 6.4 17.7 0.00 0.00 0.00 79 1015.9
20260902053404 16 228 6.4 17.7 0.00 0.00 0.00 79 1015.8
20260902053304 16 256 8.0 17.7 0.00 0.00 0.00 79 1015.9
20260902053206 16 218 8.0 17.7 0.00 0.00 0.00 79 1015.8
20260902053139 16 215 8.0 17.7 0.00 0.00 0.00 79 1015.8
20260902053105 16 252 8.0 17.7 0.00 0.00 0.00 79 1015.8
20260902053000 16 229 8.0 17.7 0.00 0.00 0.00 79 1015.8
20260902052900 16 207 8.0 17.7 0.00 0.00 0.00 79 1015.8
20260902052849 16 195 8.0 17.7 0.00 0.00 0.00 78 1015.8
20260902052801 16 248 8.0 17.7 0.00 0.00 0.00 78 1015.8
20260902052736 16 238 8.0 17.7 0.00 0.00 0.00 78 1015.8
20260902052559 16 219 8.0 17.7 0.00 0.00 0.00 78 1015.8
20260902052452 16 225 8.0 17.7 0.00 0.00 0.00 78 1015.9
20260902052353 16 207 8.0 17.7 0.00 0.00 0.00 78 1015.8
20260902052153 16 253 6.4 16.1 0.00 0.00 0.00 78 1015.8
20260902052126 16 226 6.4 16.1 0.00 0.00 0.00 78 1015.8
20260902052053 17 256 6.4 16.1 0.00 0.00 0.00 78 1015.9
20260902051949 17 225 6.4 16.1 0.00 0.00 0.00 78 1015.9
20260902051847 17 214 8.0 17.7 0.00 0.00 0.00 78 1015.9
20260902051746 17 243 8.0 17.7 0.00 0.00 0.00 78 1015.9
20260902051646 17 256 8.0 17.7 0.00 0.00 0.00 77 1015.9
20260902051625 17 236 8.0 17.7 0.00 0.00 0.00 77 1015.9
20260902051547 17 243 8.0 17.7 0.00 0.00 0.00 77 1015.9
20260902051443 17 216 8.0 17.7 0.00 0.00 0.00 77 1015.8
20260902051341 17 225 6.4 17.7 0.00 0.00 0.00 77 1015.8
20260902051240 17 222 8.0 20.9 0.00 0.00 0.00 77 1015.8
20260902051125 17 231 8.0 20.9 0.00 0.00 0.00 77 1015.8
20260902051050 17 281 8.0 20.9 0.00 0.00 0.00 77 1015.9
20260902050935 17 236 9.7 20.9 0.00 0.00 0.00 77 1015.9
20260902050834 17 228 9.7 24.1 0.00 0.00 0.00 77 1015.9
20260902050735 17 253 9.7 24.1 0.00 0.00 0.00 77 1015.9
20260902050636 17 274 9.7 24.1 0.00 0.00 0.00 77 1015.8
20260902050626 17 232 9.7 24.1 0.00 0.00 0.00 77 1015.8
20260902050534 17 235 9.7 24.1 0.00 0.00 0.00 77 1015.8
20260902050431 17 229 9.7 24.1 0.00 0.00 0.00 77 1015.8
20260902050328 17 228 11.3 24.1 0.00 0.00 0.00 77 1015.8
20260902050229 17 250 11.3 24.1 0.00 0.00 0.00 77 1015.9
20260902050130 17 267 11.3 24.1 0.00 0.00 0.00 77 1015.9
20260902050030 17 250 9.7 24.1 0.00 0.00 0.00 77 1015.8
20260902045924 17 210 9.7 24.1 0.00 0.00 0.00 76 1015.7
20260902045827 17 233 8.0 20.9 0.00 0.00 0.00 76 1015.7
20260902045727 17 246 8.0 20.9 0.00 0.00 0.00 76 1015.7
20260902045629 17 239 8.0 20.9 0.00 0.00 0.00 76 1015.7
20260902045623 17 231 8.0 20.9 0.00 0.00 0.00 76 1015.7
20260902045522 17 242 8.0 20.9 0.00 0.00 0.00 76 1015.7
20260902045418 17 195 6.4 20.9 0.00 0.00 0.00 76 1015.8
20260902045351 17 236 4.8 20.9 0.00 0.00 0.00 75 1015.8
20260902045318 17 253 6.4 20.9 0.00 0.00 0.00 76 1015.8
20260902045235 17 221 6.4 20.9 0.00 0.00 0.00 76 1015.8
20260902045120 17 266 4.8 20.9 0.00 0.00 0.00 75 1015.8
20260902045017 17 236 6.4 17.7 0.00 0.00 0.00 75 1015.8
20260902044910 17 221 6.4 17.7 0.00 0.00 0.00 75 1015.8
20260902044810 17 228 6.4 17.7 0.00 0.00 0.00 75 1015.8
20260902044714 17 210 6.4 17.7 0.00 0.00 0.00 75 1015.8
20260902044625 17 245 6.4 17.7 0.00 0.00 0.00 75 1015.8
20260902044611 17 242 6.4 17.7 0.00 0.00 0.00 75 1015.7
20260902044511 17 248 6.4 19.3 0.00 0.00 0.00 74 1015.7
20260902044414 17 256 8.0 19.3 0.00 0.00 0.00 74 1015.8
20260902044308 17 228 8.0 19.3 0.00 0.00 0.00 74 1015.8
20260902044208 17 230 8.0 19.3 0.00 0.00 0.00 74 1015.8
20260902044126 17 264 8.0 19.3 0.00 0.00 0.00 74 1015.8
20260902044109 17 232 9.7 19.3 0.00 0.00 0.00 74 1015.8
20260902044009 17 262 9.7 19.3 0.00 0.00 0.00 74 1015.8
20260902043908 17 204 9.7 19.3 0.00 0.00 0.00 74 1015.8
20260902043808 17 215 9.7 19.3 0.00 0.00 0.00 74 1015.7
20260902043709 17 250 9.7 19.3 0.00 0.00 0.00 73 1015.7
20260902043625 17 248 9.7 19.3 0.00 0.00 0.00 73 1015.7
20260902043610 17 239 8.0 19.3 0.00 0.00 0.00 73 1015.7
20260902043509 17 236 8.0 19.3 0.00 0.00 0.00 73 1015.7
20260902043412 17 230 8.0 19.3 0.00 0.00 0.00 73 1015.7
20260902043308 17 240 8.0 19.3 0.00 0.00 0.00 73 1015.6
20260902043208 17 219 8.0 19.3 0.00 0.00 0.00 73 1015.6
20260902043124 17 236 8.0 19.3 0.00 0.00 0.00 73 1015.6
20260902043110 17 183 8.0 19.3 0.00 0.00 0.00 73 1015.6
20260902043009 17 231 8.0 19.3 0.00 0.00 0.00 72 1015.6
20260902042908 17 237 8.0 19.3 0.00 0.00 0.00 72 1015.6
20260902042811 17 245 8.0 19.3 0.00 0.00 0.00 72 1015.6
20260902042708 17 230 6.4 19.3 0.00 0.00 0.00 72 1015.6
20260902042639 17 211 6.4 19.3 0.00 0.00 0.00 72 1015.6
20260902042604 17 225 8.0 19.3 0.00 0.00 0.00 72 1015.6
20260902042502 17 264 8.0 19.3 0.00 0.00 0.00 72 1015.6
20260902042403 17 219 6.4 19.3 0.00 0.00 0.00 71 1015.6
20260902042308 17 223 6.4 19.3 0.00 0.00 0.00 71 1015.6
20260902042157 17 233 6.4 19.3 0.00 0.00 0.00 71 1015.6
20260902042118 17 253 8.0 19.3 0.00 0.00 0.00 71 1015.6
20260902042057 17 225 8.0 19.3 0.00 0.00 0.00 71 1015.6
20260902041956 17 236 6.4 19.3 0.00 0.00 0.00 71 1015.6
20260902041856 17 260 6.4 19.3 0.00 0.00 0.00 71 1015.6
20260902041756 17 226 8.0 19.3 0.00 0.00 0.00 71 1015.6
20260902041651 17 200 8.0 25.7 0.00 0.00 0.00 70 1015.5
20260902041611 17 242 8.0 25.7 0.00 0.00 0.00 70 1015.5
20260902041550 18 224 8.0 25.7 0.00 0.00 0.00 70 1015.5
20260902041450 18 239 8.0 25.7 0.00 0.00 0.00 70 1015.5
20260902041350 18 256 8.0 25.7 0.00 0.00 0.00 70 1015.5
20260902041250 18 253 8.0 25.7 0.00 0.00 0.00 70 1015.5
20260902041145 18 250 9.7 25.7 0.00 0.00 0.00 70 1015.5
20260902041105 18 228 9.7 25.7 0.00 0.00 0.00 69 1015.4
20260902041045 18 186 9.7 25.7 0.00 0.00 0.00 69 1015.4
20260902040944 18 242 9.7 25.7 0.00 0.00 0.00 69 1015.4
20260902040845 18 192 9.7 25.7 0.00 0.00 0.00 69 1015.4
20260902040744 18 283 9.7 25.7 0.00 0.00 0.00 69 1015.4
20260902040638 18 243 9.7 25.7 0.00 0.00 0.00 69 1015.4
20260902040559 18 229 9.7 25.7 0.00 0.00 0.00 69 1015.3
20260902040542 18 250 9.7 25.7 0.00 0.00 0.00 69 1015.3
20260902040439 18 226 9.7 25.7 0.00 0.00 0.00 68 1015.4
20260902040339 18 240 9.7 25.7 0.00 0.00 0.00 68 1015.3
20260902040238 18 194 9.7 25.7 0.00 0.00 0.00 68 1015.3
20260902040132 18 228 8.0 25.7 0.00 0.00 0.00 68 1015.3
20260902040107 18 236 8.0 25.7 0.00 0.00 0.00 68 1015.2
20260902040033 18 246 8.0 25.7 0.00 0.00 0.00 68 1015.2
20260902035932 18 224 8.0 25.7 0.00 0.00 0.00 68 1015.3
20260902035833 18 240 6.4 25.7 0.00 0.00 0.00 67 1015.3
20260902035732 18 228 6.4 20.9 0.00 0.00 0.00 67 1015.3
20260902035626 18 231 6.4 20.9 0.00 0.00 0.00 67 1015.3
20260902035548 18 217 6.4 17.7 0.00 0.00 0.00 67 1015.3
20260902035526 18 300 6.4 17.7 0.00 0.00 0.00 67 1015.3
20260902035426 18 242 6.4 17.7 0.00 0.00 0.00 67 1015.2
20260902035326 18 210 6.4 17.7 0.00 0.00 0.00 67 1015.2
20260902035227 18 235 6.4 19.3 0.00 0.00 0.00 66 1015.2
20260902035124 18 259 6.4 19.3 0.00 0.00 0.00 66 1015.2
20260902035043 18 239 6.4 19.3 0.00 0.00 0.00 66 1015.2
20260902035021 18 242 6.4 19.3 0.00 0.00 0.00 66 1015.2
20260902034920 18 278 6.4 19.3 0.00 0.00 0.00 66 1015.1
20260902034820 18 304 6.4 19.3 0.00 0.00 0.00 66 1015.2
20260902034721 18 233 8.0 19.3 0.00 0.00 0.00 66 1015.0
20260902034617 18 228 8.0 20.9 0.00 0.00 0.00 66 1015.1
20260902034550 18 304 8.0 20.9 0.00 0.00 0.00 66 1015.1
20260902034516 18 183 8.0 20.9 0.00 0.00 0.00 66 1015.1
20260902034416 18 208 8.0 20.9 0.00 0.00 0.00 66 1015.1
20260902034316 18 215 8.0 20.9 0.00 0.00 0.00 66 1015.1
20260902034214 18 242 9.7 20.9 0.00 0.00 0.00 65 1015.1
20260902034108 18 226 9.7 20.9 0.00 0.00 0.00 65 1015.1
20260902034042 18 250 9.7 20.9 0.00 0.00 0.00 65 1015.1
20260902034008 18 203 9.7 20.9 0.00 0.00 0.00 65 1015.1
20260902033910 18 216 9.7 20.9 0.00 0.00 0.00 65 1015.0
20260902033809 18 233 8.0 20.9 0.00 0.00 0.00 65 1015.0
20260902033714 18 277 9.7 20.9 0.00 0.00 0.00 65 1015.0
20260902033608 18 240 9.7 25.7 0.00 0.00 0.00 65 1015.0
20260902033524 18 217 9.7 25.7 0.00 0.00 0.00 65 1015.0
20260902033507 18 250 9.7 25.7 0.00 0.00 0.00 65 1015.0
20260902033405 18 248 8.0 25.7 0.00 0.00 0.00 65 1014.9
20260902033302 18 281 8.0 25.7 0.00 0.00 0.00 65 1014.9
20260902033241 18 239 8.0 25.7 0.00 0.00 0.00 64 1014.8
20260902033202 18 224 6.4 25.7 0.00 0.00 0.00 65 1014.9
20260902033128 18 211 6.4 25.7 0.00 0.00 0.00 65 1014.9
20260902033000 18 225 8.0 25.7 0.00 0.00 0.00 64 1014.8
20260902032900 18 281 8.0 27.4 0.00 0.00 0.00 64 1014.9
20260902032758 18 280 9.7 27.4 0.00 0.00 0.00 64 1014.9
20260902032656 19 226 8.0 27.4 0.00 0.00 0.00 64 1014.9
20260902032551 19 223 8.0 27.4 0.00 0.00 0.00 64 1014.8
20260902032511 19 225 8.0 27.4 0.00 0.00 0.00 64 1014.8
20260902032454 19 219 8.0 27.4 0.00 0.00 0.00 64 1014.8
20260902032355 19 239 8.0 27.4 0.00 0.00 0.00 64 1014.7
20260902032250 19 250 8.0 27.4 0.00 0.00 0.00 64 1014.7
20260902032223 19 240 6.4 27.4 0.00 0.00 0.00 64 1014.6
20260902032153 19 226 8.0 27.4 0.00 0.00 0.00 64 1014.7
20260902032119 19 228 8.0 27.4 0.00 0.00 0.00 64 1014.7
20260902031945 19 276 6.4 27.4 0.00 0.00 0.00 64 1014.6
20260902031846 19 250 6.4 22.5 0.00 0.00 0.00 63 1014.7
20260902031744 19 183 4.8 19.3 0.00 0.00 0.00 64 1014.6
20260902031721 19 238 4.8 17.7 0.00 0.00 0.00 63 1014.6
20260902031644 19 249 4.8 19.3 0.00 0.00 0.00 63 1014.6
20260902031610 19 257 4.8 17.7 0.00 0.00 0.00 63 1014.6
20260902031438 19 247 4.8 17.7 0.00 0.00 0.00 63 1014.6
20260902031339 19 267 6.4 17.7 0.00 0.00 0.00 63 1014.6
20260902031238 19 241 6.4 17.7 0.00 0.00 0.00 63 1014.6
20260902031140 19 248 6.4 17.7 0.00 0.00 0.00 63 1014.6
20260902031032 19 239 6.4 17.7 0.00 0.00 0.00 63 1014.6
20260902030953 19 286 6.4 17.7 0.00 0.00 0.00 63 1014.6
20260902030932 19 242 6.4 17.7 0.00 0.00 0.00 63 1014.6
20260902030832 19 238 6.4 17.7 0.00 0.00 0.00 63 1014.6
20260902030732 19 200 6.4 17.7 0.00 0.00 0.00 63 1014.6
20260902030705 19 214 8.0 17.7 0.00 0.00 0.00 62 1014.5
20260902030632 19 235 8.0 17.7 0.00 0.00 0.00 63 1014.5
20260902030559 19 233 8.0 17.7 0.00 0.00 0.00 62 1014.4
20260902030427 19 214 8.0 17.7 0.00 0.00 0.00 62 1014.5
20260902030326 19 208 6.4 17.7 0.00 0.00 0.00 62 1014.4
20260902030226 19 221 6.4 17.7 0.00 0.00 0.00 62 1014.4
20260902030126 19 248 6.4 17.7 0.00 0.00 0.00 62 1014.4
20260902030020 19 225 6.4 17.7 0.00 0.00 0.00 62 1014.4
20260902025941 19 229 6.4 17.7 0.00 0.00 0.00 62 1014.4
20260902025921 19 250 6.4 17.7 0.00 0.00 0.00 62 1014.4
20260902025820 19 222 6.4 19.3 0.00 0.00 0.00 62 1014.4
20260902025721 19 233 6.4 19.3 0.00 0.00 0.00 62 1014.3
20260902025620 19 298 6.4 19.3 0.00 0.00 0.00 62 1014.3
20260902025514 19 263 6.4 19.3 0.00 0.00 0.00 62 1014.3
20260902025435 19 263 6.4 19.3 0.00 0.00 0.00 62 1014.3
20260902025415 19 316 6.4 19.3 0.00 0.00 0.00 62 1014.3
20260902025315 19 294 6.4 19.3 0.00 0.00 0.00 62 1014.4
20260902025214 19 229 6.4 19.3 0.00 0.00 0.00 62 1014.3
20260902025114 19 253 8.0 20.9 0.00 0.00 0.00 62 1014.3
20260902025008 19 301 8.0 20.9 0.00 0.00 0.00 61 1014.3
20260902024929 19 259 8.0 20.9 0.00 0.00 0.00 61 1014.3
20260902024909 19 253 8.0 20.9 0.00 0.00 0.00 61 1014.3
20260902024808 19 187 8.0 20.9 0.00 0.00 0.00 61 1014.3
20260902024708 19 239 8.0 20.9 0.00 0.00 0.00 61 1014.2
20260902024609 20 256 8.0 20.9 0.00 0.00 0.00 61 1014.3
20260902024506 20 281 8.0 20.9 0.00 0.00 0.00 61 1014.2
20260902024423 20 316 8.0 20.9 0.00 0.00 0.00 61 1014.2
20260902024406 20 248 8.0 20.9 0.00 0.00 0.00 61 1014.2
20260902024305 20 230 8.0 20.9 0.00 0.00 0.00 61 1014.2
20260902024204 20 221 8.0 20.9 0.00 0.00 0.00 61 1014.3
20260902024103 20 243 8.0 20.9 0.00 0.00 0.00 61 1014.3
20260902023958 20 311 8.0 22.5 0.00 0.00 0.00 61 1014.2
20260902023917 20 246 8.0 22.5 0.00 0.00 0.00 61 1014.2
20260902023903 20 256 8.0 22.5 0.00 0.00 0.00 60 1014.2
20260902023756 20 232 8.0 22.5 0.00 0.00 0.00 60 1014.2
20260902023656 20 222 8.0 22.5 0.00 0.00 0.00 60 1014.2
20260902023557 20 263 6.4 22.5 0.00 0.00 0.00 60 1014.2
20260902023450 20 264 6.4 22.5 0.00 0.00 0.00 60 1014.2
20260902023411 20 219 6.4 22.5 0.00 0.00 0.00 60 1014.2
20260902023350 20 285 6.4 22.5 0.00 0.00 0.00 60 1014.2
20260902023250 20 278 6.4 22.5 0.00 0.00 0.00 60 1014.1
20260902023151 20 258 6.4 22.5 0.00 0.00 0.00 60 1014.1
20260902023140 20 236 6.4 22.5 0.00 0.00 0.00 59 1014.1
20260902023051 20 257 6.4 22.5 0.00 0.00 0.00 59 1014.1
20260902023028 20 281 6.4 22.5 0.00 0.00 0.00 59 1014.1
20260902022845 20 264 6.4 22.5 0.00 0.00 0.00 59 1014.1
20260902022745 20 269 4.8 20.9 0.00 0.00 0.00 59 1014.1
20260902022645 20 253 4.8 20.9 0.00 0.00 0.00 59 1014.1
20260902022622 20 225 4.8 20.9 0.00 0.00 0.00 58 1014.1
20260902022545 20 253 6.4 20.9 0.00 0.00 0.00 58 1014.0
20260902022515 20 282 6.4 20.9 0.00 0.00 0.00 58 1014.1
20260902022342 20 232 4.8 20.9 0.00 0.00 0.00 58 1014.1
20260902022241 20 256 4.8 20.9 0.00 0.00 0.00 58 1014.1
20260902022145 20 260 4.8 20.9 0.00 0.00 0.00 58 1014.1
20260902022041 20 212 4.8 24.1 0.00 0.00 0.00 58 1014.1
20260902021932 20 291 6.4 24.1 0.00 0.00 0.00 58 1014.0
20260902021906 20 283 6.4 24.1 0.00 0.00 0.00 58 1014.0
20260902021832 20 353 6.4 24.1 0.00 0.00 0.00 58 1014.0
20260902021732 20 253 6.4 24.1 0.00 0.00 0.00 58 1014.0
20260902021632 20 146 6.4 24.1 0.00 0.00 0.00 58 1014.0
20260902021532 20 285 6.4 24.1 0.00 0.00 0.00 57 1013.9
20260902021429 20 239 6.4 24.1 0.00 0.00 0.00 57 1014.0
20260902021347 20 287 6.4 24.1 0.00 0.00 0.00 57 1013.9
20260902021327 20 290 6.4 24.1 0.00 0.00 0.00 57 1013.9
20260902021226 20 274 4.8 24.1 0.00 0.00 0.00 57 1013.9
20260902021126 20 264 4.8 20.9 0.00 0.00 0.00 57 1014.0
20260902021025 20 226 4.8 16.1 0.00 0.00 0.00 57 1013.9
20260902020920 20 238 4.8 16.1 0.00 0.00 0.00 57 1013.9
20260902020842 20 212 4.8 16.1 0.00 0.00 0.00 57 1013.9
20260902020821 20 225 4.8 16.1 0.00 0.00 0.00 57 1013.9
20260902020720 20 307 3.2 16.1 0.00 0.00 0.00 57 1013.9
20260902020620 20 219 3.2 16.1 0.00 0.00 0.00 57 1013.8
20260902020520 20 239 4.8 16.1 0.00 0.00 0.00 57 1013.8
20260902020414 20 260 4.8 16.1 0.00 0.00 0.00 57 1013.9
20260902020335 20 226 4.8 16.1 0.00 0.00 0.00 57 1013.9
20260902020314 20 283 4.8 16.1 0.00 0.00 0.00 57 1013.8
20260902020215 20 221 4.8 16.1 0.00 0.00 0.00 56 1013.8
20260902020115 20 234 4.8 14.5 0.00 0.00 0.00 57 1013.8
20260902020014 20 271 4.8 14.5 0.00 0.00 0.00 56 1013.8
20260902015909 20 302 4.8 19.3 0.00 0.00 0.00 56 1013.9
20260902015808 20 270 4.8 19.3 0.00 0.00 0.00 56 1013.9
20260902015708 20 269 4.8 19.3 0.00 0.00 0.00 56 1013.8
20260902015609 20 291 4.8 19.3 0.00 0.00 0.00 56 1013.8
20260902015508 20 286 6.4 19.3 0.00 0.00 0.00 56 1013.9
20260902015404 20 243 6.4 19.3 0.00 0.00 0.00 56 1013.9
20260902015323 20 240 6.4 19.3 0.00 0.00 0.00 56 1013.9
20260902015306 20 193 6.4 19.3 0.00 0.00 0.00 56 1013.8
20260902015205 20 291 6.4 19.3 0.00 0.00 0.00 56 1013.9
20260902015104 21 242 6.4 19.3 0.00 0.00 0.00 56 1013.9
20260902015002 21 304 4.8 19.3 0.00 0.00 0.00 56 1013.8
20260902014856 21 308 4.8 17.7 0.00 0.00 0.00 56 1013.8
20260902014817 21 226 4.8 17.7 0.00 0.00 0.00 55 1013.8
20260902014756 21 301 4.8 17.7 0.00 0.00 0.00 55 1013.8
20260902014656 21 263 6.4 17.7 0.00 0.00 0.00 55 1013.8
20260902014557 21 195 4.8 17.7 0.00 0.00 0.00 55 1013.8
20260902014533 21 250 6.4 19.3 0.00 0.00 0.00 55 1013.8
20260902014456 21 259 4.8 12.9 0.00 0.00 0.00 55 1013.8
20260902014421 21 298 4.8 19.3 0.00 0.00 0.00 55 1013.8
20260902014250 21 242 6.4 19.3 0.00 0.00 0.00 55 1013.8
20260902014150 21 238 6.4 19.3 0.00 0.00 0.00 55 1013.8
20260902014051 21 243 6.4 20.9 0.00 0.00 0.00 55 1013.7
20260902013950 21 193 6.4 20.9 0.00 0.00 0.00 55 1013.7
20260902013846 21 250 6.4 20.9 0.00 0.00 0.00 55 1013.7
20260902013806 21 222 8.0 20.9 0.00 0.00 0.00 54 1013.7
20260902013744 21 246 8.0 20.9 0.00 0.00 0.00 54 1013.7
20260902013644 21 236 8.0 20.9 0.00 0.00 0.00 54 1013.7
20260902013546 21 269 8.0 20.9 0.00 0.00 0.00 54 1013.8
20260902013520 21 218 8.0 20.9 0.00 0.00 0.00 53 1013.8
20260902013444 21 298 8.0 20.9 0.00 0.00 0.00 54 1013.7
20260902013338 21 274 8.0 20.9 0.00 0.00 0.00 54 1013.7
20260902013239 21 238 8.0 20.9 0.00 0.00 0.00 53 1013.8
20260902013138 21 253 8.0 20.9 0.00 0.00 0.00 53 1013.7
20260902013039 21 281 8.0 20.9 0.00 0.00 0.00 53 1013.7
20260902012938 21 253 8.0 20.9 0.00 0.00 0.00 53 1013.7
20260902012834 21 290 8.0 20.9 0.00 0.00 0.00 53 1013.7
20260902012753 21 255 8.0 20.9 0.00 0.00 0.00 53 1013.7
20260902012732 21 259 8.0 20.9 0.00 0.00 0.00 52 1013.7
20260902012632 21 231 8.0 20.9 0.00 0.00 0.00 52 1013.6
20260902012535 21 289 6.4 20.9 0.00 0.00 0.00 52 1013.6
20260902012432 22 271 6.4 20.9 0.00 0.00 0.00 52 1013.6
20260902012326 22 264 6.4 19.3 0.00 0.00 0.00 52 1013.6
20260902012247 22 248 6.4 19.3 0.00 0.00 0.00 51 1013.6
20260902012227 22 246 6.4 19.3 0.00 0.00 0.00 51 1013.6
20260902012126 22 252 6.4 19.3 0.00 0.00 0.00 51 1013.6
20260902012026 22 222 6.4 19.3 0.00 0.00 0.00 51 1013.6
20260902011926 22 238 6.4 19.3 0.00 0.00 0.00 51 1013.6
20260902011821 22 232 6.4 19.3 0.00 0.00 0.00 51 1013.6
20260902011742 22 238 4.8 19.3 0.00 0.00 0.00 51 1013.6
20260902011721 22 232 4.8 19.3 0.00 0.00 0.00 51 1013.6
20260902011620 22 259 4.8 19.3 0.00 0.00 0.00 51 1013.5
20260902011521 22 262 4.8 19.3 0.00 0.00 0.00 51 1013.6
20260902011420 22 290 6.4 20.9 0.00 0.00 0.00 51 1013.5
20260902011316 22 243 8.0 20.9 0.00 0.00 0.00 51 1013.5
20260902011235 22 228 8.0 20.9 0.00 0.00 0.00 51 1013.5
20260902011214 22 256 8.0 20.9 0.00 0.00 0.00 51 1013.5
20260902011115 22 253 8.0 20.9 0.00 0.00 0.00 51 1013.5
20260902011015 22 259 8.0 20.9 0.00 0.00 0.00 51 1013.5
20260902010914 22 253 9.7 20.9 0.00 0.00 0.00 51 1013.5
20260902010810 22 270 9.7 20.9 0.00 0.00 0.00 51 1013.5
20260902010729 22 269 9.7 20.9 0.00 0.00 0.00 51 1013.5
20260902010708 22 218 9.7 20.9 0.00 0.00 0.00 51 1013.4
20260902010609 22 285 9.7 22.5 0.00 0.00 0.00 51 1013.5
20260902010508 22 217 8.0 22.5 0.00 0.00 0.00 51 1013.4
20260902010409 22 228 8.0 22.5 0.00 0.00 0.00 50 1013.5
20260902010304 22 238 6.4 22.5 0.00 0.00 0.00 50 1013.5
20260902010223 22 231 6.4 22.5 0.00 0.00 0.00 50 1013.5
20260902010203 22 232 6.4 22.5 0.00 0.00 0.00 50 1013.5
20260902010004 22 240 6.4 22.5 0.00 0.00 0.00 50 1013.5
20260902005902 22 242 4.8 22.5 0.00 0.00 0.00 50 1013.5
20260902005758 22 243 3.2 22.5 0.00 0.00 0.00 50 1013.5
20260902005717 22 250 3.2 22.5 0.00 0.00 0.00 50 1013.5
20260902005658 22 281 3.2 22.5 0.00 0.00 0.00 50 1013.5
20260902005600 22 283 3.2 12.9 0.00 0.00 0.00 50 1013.5
20260902005458 22 233 3.2 12.9 0.00 0.00 0.00 50 1013.5
20260902005430 22 221 3.2 12.9 0.00 0.00 0.00 50 1013.5
20260902005359 22 233 3.2 12.9 0.00 0.00 0.00 50 1013.5
20260902005322 22 240 3.2 12.9 0.00 0.00 0.00 50 1013.5
20260902005152 22 212 3.2 12.9 0.00 0.00 0.00 50 1013.5
20260902005053 22 271 3.2 12.9 0.00 0.00 0.00 50 1013.4
20260902004952 22 250 3.2 16.1 0.00 0.00 0.00 51 1013.4
20260902004933 22 243 4.8 16.1 0.00 0.00 0.00 50 1013.4
20260902004850 22 214 3.2 16.1 0.00 0.00 0.00 51 1013.4
20260902004815 22 243 4.8 16.1 0.00 0.00 0.00 51 1013.4
20260902004644 22 243 4.8 16.1 0.00 0.00 0.00 50 1013.4
20260902004545 22 235 6.4 20.9 0.00 0.00 0.00 50 1013.5
20260902004444 22 230 6.4 20.9 0.00 0.00 0.00 50 1013.5
20260902004348 22 253 8.0 20.9 0.00 0.00 0.00 50 1013.5
20260902004238 22 252 6.4 20.9 0.00 0.00 0.00 50 1013.5
20260902004159 22 243 8.0 20.9 0.00 0.00 0.00 50 1013.4
20260902004138 22 236 8.0 20.9 0.00 0.00 0.00 50 1013.4
20260902004040 22 245 6.4 20.9 0.00 0.00 0.00 49 1013.5
20260902003939 22 255 6.4 20.9 0.00 0.00 0.00 48 1013.5
20260902003839 23 239 6.4 20.9 0.00 0.00 0.00 48 1013.4
20260902003734 23 221 6.4 25.7 0.00 0.00 0.00 48 1013.4
20260902003653 23 210 6.4 25.7 0.00 0.00 0.00 48 1013.5
20260902003633 23 243 6.4 25.7 0.00 0.00 0.00 48 1013.5
20260902003538 23 218 6.4 25.7 0.00 0.00 0.00 48 1013.5
20260902003432 23 219 6.4 25.7 0.00 0.00 0.00 48 1013.4
20260902003332 23 183 6.4 25.7 0.00 0.00 0.00 49 1013.4
20260902003226 23 231 6.4 25.7 0.00 0.00 0.00 48 1013.4
20260902003148 23 207 6.4 25.7 0.00 0.00 0.00 48 1013.5
20260902003128 23 253 6.4 25.7 0.00 0.00 0.00 48 1013.5
20260902003026 23 236 6.4 25.7 0.00 0.00 0.00 48 1013.5
20260902002926 23 124 6.4 25.7 0.00 0.00 0.00 48 1013.5
20260902002826 23 231 6.4 25.7 0.00 0.00 0.00 48 1013.6
20260902002720 23 235 4.8 19.3 0.00 0.00 0.00 48 1013.6
20260902002641 23 212 4.8 19.3 0.00 0.00 0.00 48 1013.5
20260902002620 23 236 4.8 19.3 0.00 0.00 0.00 48 1013.5
20260902002520 23 253 6.4 19.3 0.00 0.00 0.00 48 1013.5
20260902002420 23 210 4.8 19.3 0.00 0.00 0.00 48 1013.5
20260902002357 23 246 6.4 19.3 0.00 0.00 0.00 47 1013.5
20260902002320 23 139 4.8 19.3 0.00 0.00 0.00 48 1013.5
20260902002246 23 246 6.4 19.3 0.00 0.00 0.00 48 1013.5
20260902002114 23 245 6.4 19.3 0.00 0.00 0.00 47 1013.4
20260902002014 23 271 6.4 19.3 0.00 0.00 0.00 48 1013.5
20260902001914 23 243 8.0 24.1 0.00 0.00 0.00 48 1013.4
20260902001814 23 263 8.0 24.1 0.00 0.00 0.00 48 1013.5
20260902001708 23 257 6.4 24.1 0.00 0.00 0.00 47 1013.5
20260902001629 23 231 6.4 24.1 0.00 0.00 0.00 47 1013.5
20260902001608 23 236 6.4 24.1 0.00 0.00 0.00 47 1013.4
20260902001508 23 246 6.4 24.1 0.00 0.00 0.00 48 1013.4
20260902001408 23 253 4.8 24.1 0.00 0.00 0.00 48 1013.4
20260902001343 23 270 4.8 24.1 0.00 0.00 0.00 47 1013.4
20260902001309 23 238 4.8 24.1 0.00 0.00 0.00 48 1013.4
20260902001233 23 283 4.8 24.1 0.00 0.00 0.00 47 1013.4
20260902001103 23 193 4.8 24.1 0.00 0.00 0.00 47 1013.5
20260902001002 23 256 4.8 20.9 0.00 0.00 0.00 47 1013.4
20260902000903 23 208 4.8 16.1 0.00 0.00 0.00 47 1013.4
20260902000802 23 232 4.8 16.1 0.00 0.00 0.00 48 1013.4
20260902000702 23 230 4.8 16.1 0.00 0.00 0.00 48 1013.5
20260902000617 23 231 4.8 16.1 0.00 0.00 0.00 48 1013.5
20260902000601 23 221 4.8 16.1 0.00 0.00 0.00 48 1013.5
20260902000500 23 235 6.4 16.1 0.00 0.00 0.00 48 1013.5
20260902000359 23 260 6.4 25.7 0.00 0.00 0.00 47 1013.5
20260902000257 23 230 6.4 25.7 0.00 0.00 0.00 47 1013.4
20260902000150 23 243 6.4 25.7 0.00 0.00 0.00 47 1013.5
20260902000112 23 225 6.4 25.7 0.00 0.00 0.00 47 1013.5
20260902000051 23 236 4.8 25.7 0.00 0.00 0.00 47 1013.5
20260901235950 23 198 4.8 25.7 0.00 0.00 0.00 47 1013.5
20260901235851 23 271 4.8 25.7 0.00 0.00 0.00 47 1013.5
20260901235750 23 192 4.8 25.7 0.00 0.00 0.00 47 1013.5
20260901235646 23 325 4.8 25.7 0.00 0.00 0.00 46 1013.5
20260901235605 23 226 4.8 25.7 0.00 0.00 0.00 46 1013.5
20260901235544 23 245 4.8 25.7 0.00 0.00 0.00 46 1013.5
20260901235444 23 246 4.8 25.7 0.00 0.00 0.00 47 1013.5
20260901235344 23 240 4.8 16.1 0.00 0.00 0.00 46 1013.5
20260901235244 23 270 4.8 19.3 0.00 0.00 0.00 46 1013.5
20260901235140 23 246 4.8 19.3 0.00 0.00 0.00 47 1013.5
20260901235059 23 246 4.8 19.3 0.00 0.00 0.00 47 1013.5
20260901235042 23 245 4.8 19.3 0.00 0.00 0.00 47 1013.5
20260901234940 23 240 4.8 19.3 0.00 0.00 0.00 47 1013.6
20260901234840 23 231 4.8 19.3 0.00 0.00 0.00 47 1013.5
20260901234738 23 226 6.4 19.3 0.00 0.00 0.00 47 1013.5
20260901234632 23 233 6.4 19.3 0.00 0.00 0.00 45 1013.6
20260901234554 23 240 6.4 20.9 0.00 0.00 0.00 45 1013.6
20260901234538 23 235 6.4 20.9 0.00 0.00 0.00 46 1013.6
20260901234432 24 267 6.4 20.9 0.00 0.00 0.00 45 1013.6
20260901234332 24 225 6.4 20.9 0.00 0.00 0.00 45 1013.5
20260901234231 24 233 4.8 20.9 0.00 0.00 0.00 45 1013.5
20260901234126 24 207 6.4 20.9 0.00 0.00 0.00 46 1013.5
20260901234048 24 250 6.4 20.9 0.00 0.00 0.00 46 1013.5
20260901234026 24 224 6.4 20.9 0.00 0.00 0.00 46 1013.5
20260901233927 24 248 8.0 20.9 0.00 0.00 0.00 46 1013.5
20260901233827 24 229 8.0 25.7 0.00 0.00 0.00 45 1013.5
20260901233726 24 259 8.0 25.7 0.00 0.00 0.00 45 1013.5
20260901233623 24 149 8.0 25.7 0.00 0.00 0.00 46 1013.5
20260901233542 24 159 8.0 25.7 0.00 0.00 0.00 46 1013.5
20260901233520 24 231 8.0 25.7 0.00 0.00 0.00 46 1013.5
20260901233421 24 273 8.0 25.7 0.00 0.00 0.00 46 1013.6
20260901233320 24 273 8.0 25.7 0.00 0.00 0.00 45 1013.6
20260901233259 24 248 6.4 25.7 0.00 0.00 0.00 45 1013.6
20260901233220 24 228 8.0 25.7 0.00 0.00 0.00 45 1013.6
20260901233154 24 225 6.4 25.7 0.00 0.00 0.00 45 1013.6
20260901233016 24 228 6.4 25.7 0.00 0.00 0.00 45 1013.6
20260901232914 24 226 6.4 25.7 0.00 0.00 0.00 45 1013.6
20260901232814 24 300 4.8 19.3 0.00 0.00 0.00 44 1013.6
20260901232714 25 214 3.2 17.7 0.00 0.00 0.00 44 1013.6
20260901232609 25 148 3.2 17.7 0.00 0.00 0.00 44 1013.7
20260901232540 25 249 3.2 17.7 0.00 0.00 0.00 44 1013.7
20260901232508 25 182 3.2 17.7 0.00 0.00 0.00 44 1013.6
20260901232408 25 217 3.2 17.7 0.00 0.00 0.00 44 1013.7
20260901232308 25 322 3.2 11.3 0.00 0.00 0.00 45 1013.6
20260901232208 25 212 3.2 11.3 0.00 0.00 0.00 45 1013.7
20260901232102 24 226 3.2 16.1 0.00 0.00 0.00 45 1013.6
20260901232040 24 204 3.2 16.1 0.00 0.00 0.00 45 1013.6
20260901232003 24 240 4.8 16.1 0.00 0.00 0.00 45 1013.7
20260901231902 24 212 4.8 16.1 0.00 0.00 0.00 45 1013.7
20260901231803 24 270 4.8 16.1 0.00 0.00 0.00 45 1013.7
20260901231702 24 188 4.8 16.1 0.00 0.00 0.00 45 1013.7
20260901231557 24 248 4.8 16.1 0.00 0.00 0.00 45 1013.7
20260901231541 24 250 4.8 16.1 0.00 0.00 0.00 45 1013.7
20260901231456 24 250 4.8 16.1 0.00 0.00 0.00 45 1013.7
20260901231358 24 217 4.8 16.1 0.00 0.00 0.00 45 1013.7
20260901231256 24 256 6.4 17.7 0.00 0.00 0.00 45 1013.7
20260901231156 24 224 6.4 17.7 0.00 0.00 0.00 45 1013.8
20260901231054 24 229 6.4 17.7 0.00 0.00 0.00 44 1013.8
20260901231039 24 259 6.4 17.7 0.00 0.00 0.00 45 1013.8
20260901230955 24 252 6.4 17.7 0.00 0.00 0.00 45 1013.8
20260901230854 24 280 6.4 17.7 0.00 0.00 0.00 45 1013.7
20260901230752 24 280 6.4 17.7 0.00 0.00 0.00 45 1013.8
20260901230652 24 280 6.4 17.7 0.00 0.00 0.00 44 1013.8
20260901230603 24 236 4.8 17.7 0.00 0.00 0.00 45 1013.8
20260901230553 24 291 4.8 17.7 0.00 0.00 0.00 44 1013.8
20260901230452 24 198 6.4 17.7 0.00 0.00 0.00 44 1013.8
20260901230352 24 236 4.8 17.7 0.00 0.00 0.00 45 1013.9
20260901230250 24 236 4.8 14.5 0.00 0.00 0.00 44 1013.9
20260901230151 24 207 4.8 14.5 0.00 0.00 0.00 44 1013.9
20260901230050 24 177 6.4 19.3 0.00 0.00 0.00 44 1013.9
20260901225950 24 229 6.4 19.3 0.00 0.00 0.00 44 1013.8
20260901225850 24 129 8.0 20.9 0.00 0.00 0.00 44 1013.9
20260901225751 24 160 8.0 20.9 0.00 0.00 0.00 45 1013.9
20260901225650 24 312 8.0 20.9 0.00 0.00 0.00 45 1013.9
20260901225550 24 30 8.0 20.9 0.00 0.00 0.00 45 1013.9
20260901225535 24 250 8.0 20.9 0.00 0.00 0.00 45 1013.9
20260901225448 24 233 8.0 20.9 0.00 0.00 0.00 44 1013.9
20260901225348 24 143 8.0 20.9 0.00 0.00 0.00 45 1013.9
20260901225248 24 228 8.0 20.9 0.00 0.00 0.00 44 1013.9
20260901225148 24 273 8.0 20.9 0.00 0.00 0.00 43 1013.9
20260901225049 24 263 8.0 20.9 0.00 0.00 0.00 44 1013.9
20260901225036 24 226 8.0 20.9 0.00 0.00 0.00 44 1013.9
20260901224948 24 231 6.4 20.9 0.00 0.00 0.00 44 1013.9
20260901224842 24 243 6.4 20.9 0.00 0.00 0.00 44 1013.9
20260901224743 24 164 6.4 17.7 0.00 0.00 0.00 44 1013.8
20260901224643 24 112 6.4 17.7 0.00 0.00 0.00 43 1013.8
20260901224547 24 242 6.4 17.7 0.00 0.00 0.00 43 1013.9
20260901224537 24 229 6.4 17.7 0.00 0.00 0.00 43 1013.9
20260901224442 24 232 6.4 17.7 0.00 0.00 0.00 44 1013.8
20260901224341 24 161 4.8 16.1 0.00 0.00 0.00 44 1013.9
20260901224240 24 225 4.8 16.1 0.00 0.00 0.00 44 1013.9
20260901224138 24 245 4.8 16.1 0.00 0.00 0.00 44 1013.9
20260901224041 24 242 4.8 16.1 0.00 0.00 0.00 43 1014.0
20260901223936 24 266 4.8 17.7 0.00 0.00 0.00 44 1014.0
20260901223830 24 250 4.8 17.7 0.00 0.00 0.00 44 1013.9
20260901223731 24 260 4.8 17.7 0.00 0.00 0.00 44 1014.0
20260901223631 24 259 4.8 17.7 0.00 0.00 0.00 44 1014.0
20260901223540 24 291 4.8 17.7 0.00 0.00 0.00 45 1014.0
20260901223534 24 228 4.8 17.7 0.00 0.00 0.00 45 1014.0
20260901223430 24 300 4.8 17.7 0.00 0.00 0.00 45 1014.0
20260901223325 24 304 6.4 17.7 0.00 0.00 0.00 45 1014.0
20260901223225 24 225 6.4 17.7 0.00 0.00 0.00 44 1014.0
20260901223124 24 228 6.4 17.7 0.00 0.00 0.00 44 1014.0
20260901223034 24 225 8.0 22.5 0.00 0.00 0.00 45 1014.0
20260901223025 24 239 8.0 22.5 0.00 0.00 0.00 45 1014.0
20260901222924 24 242 9.7 22.5 0.00 0.00 0.00 44 1014.1
20260901222819 24 236 9.7 22.5 0.00 0.00 0.00 44 1014.0
20260901222718 24 240 9.7 22.5 0.00 0.00 0.00 44 1014.0
20260901222618 24 229 8.0 22.5 0.00 0.00 0.00 44 1014.1
20260901222535 24 138 8.0 22.5 0.00 0.00 0.00 44 1014.1
20260901222518 24 207 8.0 22.5 0.00 0.00 0.00 45 1014.1
20260901222418 24 198 8.0 22.5 0.00 0.00 0.00 44 1014.1
20260901222312 24 250 6.4 22.5 0.00 0.00 0.00 44 1014.1
20260901222212 24 279 6.4 22.5 0.00 0.00 0.00 44 1014.1
20260901222112 24 253 4.8 22.5 0.00 0.00 0.00 44 1014.1
20260901222033 24 208 4.8 17.7 0.00 0.00 0.00 44 1014.1
20260901222012 24 128 4.8 17.7 0.00 0.00 0.00 44 1014.1
20260901221912 24 250 3.2 17.7 0.00 0.00 0.00 45 1014.1
20260901221811 24 314 3.2 14.5 0.00 0.00 0.00 45 1014.1
20260901221710 24 328 3.2 14.5 0.00 0.00 0.00 45 1014.2
20260901221611 24 358 3.2 14.5 0.00 0.00 0.00 45 1014.2
20260901221535 24 326 3.2 14.5 0.00 0.00 0.00 45 1014.2
20260901221509 24 236 3.2 14.5 0.00 0.00 0.00 45 1014.3
20260901221406 24 286 3.2 14.5 0.00 0.00 0.00 45 1014.3
20260901221304 24 267 3.2 20.9 0.00 0.00 0.00 44 1014.3
20260901221300 24 242 3.2 17.7 0.00 0.00 0.00 45 1014.3
20260901221200 24 239 3.2 20.9 0.00 0.00 0.00 44 1014.3
20260901221143 24 165 3.2 20.9 0.00 0.00 0.00 44 1014.3
20260901221000 24 252 3.2 20.9 0.00 0.00 0.00 45 1014.4
20260901220900 24 151 3.2 20.9 0.00 0.00 0.00 44 1014.3
20260901220754 24 211 4.8 20.9 0.00 0.00 0.00 45 1014.4
20260901220654 24 307 4.8 20.9 0.00 0.00 0.00 45 1014.3
20260901220554 24 308 4.8 20.9 0.00 0.00 0.00 45 1014.4
20260901220534 24 307 4.8 20.9 0.00 0.00 0.00 45 1014.4
20260901220454 24 287 4.8 20.9 0.00 0.00 0.00 44 1014.5
20260901220356 24 259 4.8 20.9 0.00 0.00 0.00 44 1014.4
20260901220252 24 231 4.8 14.5 0.00 0.00 0.00 45 1014.4
20260901220243 24 203 4.8 14.5 0.00 0.00 0.00 46 1014.3
20260901220150 24 233 4.8 14.5 0.00 0.00 0.00 46 1014.3
20260901220136 24 270 4.8 14.5 0.00 0.00 0.00 46 1014.3
20260901215948 24 144 4.8 14.5 0.00 0.00 0.00 46 1014.4
20260901215846 24 238 4.8 16.1 0.00 0.00 0.00 46 1014.3
20260901215748 23 236 4.8 16.1 0.00 0.00 0.00 47 1014.3
20260901215742 24 197 4.8 16.1 0.00 0.00 0.00 47 1014.3
20260901215640 23 219 4.8 16.1 0.00 0.00 0.00 47 1014.3
20260901215630 23 233 4.8 16.1 0.00 0.00 0.00 47 1014.3
20260901215441 23 215 6.4 17.7 0.00 0.00 0.00 47 1014.3
20260901215340 23 230 6.4 22.5 0.00 0.00 0.00 47 1014.3